BAW116 WADD-LTFM

Flight info

Callsign BAW116
Flight time N/A
Altitude 34000
Route KOLTA G464 PNK N875 BOBOB M761 VPK M751 VKB M626 BGO L507 CEA R460 BBN/N0505F360 R460 LKN R594 DPN A589 BUTOP M875 DI N644 LEMOD/N0489F380 A909 RODAR N644 ADEKI DCT BADIR DCT LAGAS DCT NOLGA UG261 TBN UM11 CRM UM688 EKSUK UL852 TIVUG UM10 HAKAN UN644 GUMRU UT315 NUGBA
Aircraft A35K/H-SDE2E3GHIJ3J4J5LM1ORWXY/LB1D1

Departure

Time 2026-05-05 15:51
Airport Denpasar I Gusti Ngurah Rai International Airport (WADD)

Arrival

Time N/A
Airport İstanbul Airport (LTFM)
Time Latitude Longitude Altitude Speed Heading
2026-05-05 15:40 -8.74564 115.16672 39 ft 0 kts 358°
2026-05-05 15:41 -8.74582 115.16673 38 ft 3 kts 358°
2026-05-05 15:41 -8.74601 115.16674 37 ft 3 kts 358°
2026-05-05 15:42 -8.74620 115.16675 35 ft 3 kts 358°
2026-05-05 15:42 -8.74639 115.16675 36 ft 3 kts 349°
2026-05-05 15:42 -8.74658 115.16683 36 ft 3 kts 312°
2026-05-05 15:42 -8.74669 115.16700 36 ft 3 kts 276°
2026-05-05 15:43 -8.74670 115.16704 36 ft 0 kts 272°
2026-05-05 15:44 -8.74670 115.16700 36 ft 1 kts 266°
2026-05-05 15:45 -8.74672 115.16680 36 ft 4 kts 263°
2026-05-05 15:45 -8.74678 115.16638 38 ft 7 kts 262°
2026-05-05 15:45 -8.74684 115.16584 38 ft 8 kts 266°
2026-05-05 15:45 -8.74687 115.16528 38 ft 8 kts 266°
2026-05-05 15:46 -8.74690 115.16470 38 ft 8 kts 268°
2026-05-05 15:46 -8.74692 115.16410 38 ft 9 kts 268°
2026-05-05 15:46 -8.74695 115.16349 38 ft 9 kts 267°
2026-05-05 15:46 -8.74698 115.16285 38 ft 9 kts 267°
2026-05-05 15:47 -8.74701 115.16220 38 ft 9 kts 268°
2026-05-05 15:47 -8.74702 115.16174 38 ft 10 kts 268°
2026-05-05 15:47 -8.74706 115.16079 39 ft 12 kts 267°
2026-05-05 15:47 -8.74710 115.15985 38 ft 15 kts 268°
2026-05-05 15:48 -8.74714 115.15872 38 ft 17 kts 268°
2026-05-05 15:48 -8.74719 115.15753 38 ft 17 kts 267°
2026-05-05 15:48 -8.74724 115.15633 38 ft 17 kts 268°
2026-05-05 15:48 -8.74727 115.15535 38 ft 12 kts 268°
2026-05-05 15:49 -8.74732 115.15454 38 ft 12 kts 262°
2026-05-05 15:49 -8.74781 115.15397 37 ft 11 kts 199°
2026-05-05 15:49 -8.74861 115.15395 34 ft 10 kts 175°
2026-05-05 15:49 -8.74893 115.15427 34 ft 6 kts 107°
2026-05-05 15:50 -8.74895 115.15465 35 ft 5 kts 86°
2026-05-05 15:50 -8.74891 115.15524 35 ft 22 kts 86°
2026-05-05 15:50 -8.74876 115.15937 35 ft 94 kts 88°
2026-05-05 15:50 -8.74839 115.16831 33 ft 158 kts 88°
2026-05-05 15:51 -8.74779 115.18075 377 ft 182 kts 86°
2026-05-05 15:51 -8.74708 115.19317 1257 ft 174 kts 89°
2026-05-05 15:51 -8.74632 115.20497 2144 ft 164 kts 86°
2026-05-05 15:51 -8.74529 115.21583 2582 ft 160 kts 87°
2026-05-05 15:52 -8.74497 115.22761 2655 ft 173 kts 90°
2026-05-05 15:52 -8.74477 115.24025 2774 ft 188 kts 90°
2026-05-05 15:52 -8.74446 115.25402 2891 ft 202 kts 89°
2026-05-05 15:52 -8.74398 115.26862 3080 ft 215 kts 89°
2026-05-05 15:53 -8.74341 115.28413 3299 ft 228 kts 88°
2026-05-05 15:53 -8.74275 115.30061 3507 ft 241 kts 88°
2026-05-05 15:53 -8.74203 115.31797 3784 ft 251 kts 88°
2026-05-05 15:53 -8.74154 115.32975 4039 ft 255 kts 88°
2026-05-05 15:54 -8.74079 115.34783 4427 ft 260 kts 88°
2026-05-05 15:54 -8.74004 115.36624 4857 ft 264 kts 88°
2026-05-05 15:54 -8.73930 115.38483 5320 ft 266 kts 88°
2026-05-05 15:54 -8.73853 115.40357 5752 ft 269 kts 88°
2026-05-05 15:55 -8.73761 115.42248 6226 ft 270 kts 85°
2026-05-05 15:55 -8.73353 115.44100 6706 ft 272 kts 69°
2026-05-05 15:55 -8.72355 115.45734 7093 ft 277 kts 47°
2026-05-05 15:55 -8.70744 115.46810 7468 ft 284 kts 21°
2026-05-05 15:56 -8.68766 115.47022 7838 ft 292 kts 352°
2026-05-05 15:56 -8.66887 115.46233 8226 ft 298 kts 323°
2026-05-05 15:56 -8.65561 115.44636 8641 ft 301 kts 296°
2026-05-05 15:56 -8.64740 115.42676 9060 ft 305 kts 290°
2026-05-05 15:57 -8.63998 115.40685 9468 ft 308 kts 290°
2026-05-05 15:57 -8.63224 115.38658 9897 ft 310 kts 291°
2026-05-05 15:57 -8.62407 115.36587 10219 ft 318 kts 291°
2026-05-05 15:57 -8.61563 115.34486 10410 ft 328 kts 291°
2026-05-05 15:58 -8.60680 115.32317 10600 ft 339 kts 291°
2026-05-05 15:58 -8.59766 115.30086 10790 ft 349 kts 292°
2026-05-05 15:58 -8.58833 115.27814 10963 ft 360 kts 292°
2026-05-05 15:58 -8.57857 115.25447 11138 ft 370 kts 292°
2026-05-05 15:59 -8.56856 115.23022 11327 ft 379 kts 292°
2026-05-05 15:59 -8.55831 115.20541 11494 ft 387 kts 292°
2026-05-05 15:59 -8.54783 115.18000 11673 ft 396 kts 292°
2026-05-05 15:59 -8.53714 115.15411 11837 ft 403 kts 292°
2026-05-05 16:00 -8.52627 115.12779 12076 ft 408 kts 292°
2026-05-05 16:00 -8.51529 115.10123 12394 ft 410 kts 292°
2026-05-05 16:00 -8.50426 115.07453 12725 ft 412 kts 292°
2026-05-05 16:00 -8.49322 115.04778 13048 ft 414 kts 292°
2026-05-05 16:01 -8.48205 115.02080 13385 ft 416 kts 292°
2026-05-05 16:01 -8.46852 114.99503 13715 ft 417 kts 305°
2026-05-05 16:01 -8.44822 114.97400 13944 ft 421 kts 323°
2026-05-05 16:01 -8.42381 114.95796 14272 ft 420 kts 329°
2026-05-05 16:02 -8.39861 114.94272 14535 ft 422 kts 329°
2026-05-05 16:02 -8.37328 114.92744 14782 ft 425 kts 329°
2026-05-05 16:02 -8.34790 114.91214 15081 ft 426 kts 329°
2026-05-05 16:02 -8.32234 114.89702 15429 ft 425 kts 329°
2026-05-05 16:03 -8.29674 114.88189 15654 ft 428 kts 329°
2026-05-05 16:03 -8.27128 114.86683 15885 ft 430 kts 329°
2026-05-05 16:03 -8.24542 114.85151 16217 ft 430 kts 329°
2026-05-05 16:03 -8.21958 114.83620 16498 ft 431 kts 329°
2026-05-05 16:04 -8.19368 114.82085 16753 ft 433 kts 329°
2026-05-05 16:04 -8.16760 114.80539 17011 ft 435 kts 329°
2026-05-05 16:04 -8.14159 114.78997 17338 ft 434 kts 329°
2026-05-05 16:04 -8.11549 114.77450 17588 ft 436 kts 329°
2026-05-05 16:05 -8.08928 114.75896 17853 ft 438 kts 329°
2026-05-05 16:05 -8.06291 114.74333 18122 ft 439 kts 329°
2026-05-05 16:05 -8.03655 114.72771 18386 ft 439 kts 329°
2026-05-05 16:05 -8.01016 114.71208 18588 ft 441 kts 329°
2026-05-05 16:06 -7.98362 114.69636 18771 ft 443 kts 329°
2026-05-05 16:06 -7.95702 114.68061 19005 ft 444 kts 329°
2026-05-05 16:06 -7.93039 114.66484 19217 ft 445 kts 329°
2026-05-05 16:06 -7.90363 114.64906 19427 ft 446 kts 330°
2026-05-05 16:07 -7.87647 114.63395 19614 ft 448 kts 332°
2026-05-05 16:07 -7.84896 114.61903 19820 ft 449 kts 332°
2026-05-05 16:07 -7.82146 114.60414 20021 ft 450 kts 332°
2026-05-05 16:07 -7.79415 114.58934 20203 ft 451 kts 332°
2026-05-05 16:08 -7.76648 114.57434 20415 ft 452 kts 332°
2026-05-05 16:08 -7.73875 114.55930 20620 ft 453 kts 332°
2026-05-05 16:08 -7.71090 114.54418 20814 ft 455 kts 332°
2026-05-05 16:08 -7.68300 114.52905 21011 ft 456 kts 332°
2026-05-05 16:09 -7.65503 114.51387 21218 ft 457 kts 332°
2026-05-05 16:09 -7.62691 114.49861 21420 ft 459 kts 332°
2026-05-05 16:09 -7.59883 114.48337 21640 ft 460 kts 332°
2026-05-05 16:09 -7.57061 114.46806 21803 ft 462 kts 332°
2026-05-05 16:10 -7.54227 114.45270 22016 ft 463 kts 332°
2026-05-05 16:10 -7.51373 114.43722 22207 ft 464 kts 332°
2026-05-05 16:10 -7.48533 114.42182 22426 ft 465 kts 332°
2026-05-05 16:10 -7.45676 114.40626 22610 ft 467 kts 331°
2026-05-05 16:11 -7.42853 114.39002 22811 ft 468 kts 330°
2026-05-05 16:11 -7.34401 114.34049 23415 ft 472 kts 330°
2026-05-05 16:12 -7.31557 114.32384 23590 ft 473 kts 331°
2026-05-05 16:12 -7.25840 114.29041 23893 ft 477 kts 330°
2026-05-05 16:13 -7.17188 114.23988 24370 ft 481 kts 330°
2026-05-05 16:13 -7.14289 114.22295 24543 ft 482 kts 330°
2026-05-05 16:13 -7.11385 114.20601 24704 ft 484 kts 330°
2026-05-05 16:14 -7.05542 114.17190 25024 ft 486 kts 330°
2026-05-05 16:14 -6.99669 114.13762 25340 ft 489 kts 330°
2026-05-05 16:15 -6.93772 114.10323 25678 ft 491 kts 330°
2026-05-05 16:15 -6.87821 114.06852 25909 ft 496 kts 330°
2026-05-05 16:16 -6.81831 114.03359 26291 ft 498 kts 330°
2026-05-05 16:16 -6.75809 113.99849 26579 ft 501 kts 330°
2026-05-05 16:17 -6.69809 113.96353 26927 ft 503 kts 330°
2026-05-05 16:17 -6.66764 113.94581 27031 ft 506 kts 330°
2026-05-05 16:18 -6.60669 113.91032 27435 ft 507 kts 330°
2026-05-05 16:18 -6.57615 113.89251 27562 ft 509 kts 330°
2026-05-05 16:18 -6.51463 113.85668 27924 ft 510 kts 330°
2026-05-05 16:19 -6.48379 113.83875 28032 ft 512 kts 330°
2026-05-05 16:19 -6.39071 113.78491 28516 ft 515 kts 330°
2026-05-05 16:20 -6.32810 113.74892 28706 ft 519 kts 330°
2026-05-05 16:20 -6.26512 113.71276 28986 ft 522 kts 330°
2026-05-05 16:21 -6.20197 113.67646 29261 ft 523 kts 330°
2026-05-05 16:22 -6.10791 113.62240 29804 ft 522 kts 330°
2026-05-05 16:22 -6.04507 113.58630 30276 ft 519 kts 330°
2026-05-05 16:23 -5.98233 113.55026 30587 ft 518 kts 330°
2026-05-05 16:23 -5.95112 113.53236 30859 ft 515 kts 330°
2026-05-05 16:23 -5.88899 113.49670 31256 ft 513 kts 330°
2026-05-05 16:24 -5.85813 113.47899 31516 ft 510 kts 330°
2026-05-05 16:24 -5.82734 113.46132 31695 ft 509 kts 330°
2026-05-05 16:24 -5.76575 113.42601 31998 ft 509 kts 330°
2026-05-05 16:25 -5.73507 113.40842 32200 ft 507 kts 330°
2026-05-05 16:25 -5.67376 113.37326 32510 ft 506 kts 330°
2026-05-05 16:25 -5.64328 113.35578 32690 ft 505 kts 330°
2026-05-05 16:26 -5.58282 113.32109 32968 ft 503 kts 330°
2026-05-05 16:26 -5.52177 113.28612 33118 ft 505 kts 330°
2026-05-05 16:27 -5.49128 113.26864 33244 ft 504 kts 331°
2026-05-05 16:27 -5.46081 113.25121 33406 ft 503 kts 330°
2026-05-05 16:27 -5.43042 113.23382 33528 ft 503 kts 330°
2026-05-05 16:27 -5.40002 113.21641 33672 ft 502 kts 330°
2026-05-05 16:28 -5.36971 113.19906 33785 ft 502 kts 330°
2026-05-05 16:28 -5.33931 113.18168 33832 ft 503 kts 330°
2026-05-05 16:28 -5.27813 113.14666 33889 ft 507 kts 330°
2026-05-05 16:29 -5.21672 113.11153 33902 ft 508 kts 331°
2026-05-05 16:29 -5.15570 113.07661 33900 ft 508 kts 331°
2026-05-05 16:30 -5.09419 113.04144 33903 ft 508 kts 330°
2026-05-05 16:30 -5.03273 113.00625 33903 ft 508 kts 331°
2026-05-05 16:31 -4.97121 112.97108 33903 ft 508 kts 330°
2026-05-05 16:31 -4.90976 112.93596 33900 ft 508 kts 332°
2026-05-05 16:32 -4.84832 112.90083 33900 ft 508 kts 331°
2026-05-05 16:32 -4.78691 112.86569 33900 ft 508 kts 331°
2026-05-05 16:33 -4.72538 112.83054 33900 ft 508 kts 332°
2026-05-05 16:33 -4.66422 112.79564 33900 ft 508 kts 331°
2026-05-05 16:34 -4.60276 112.76053 33900 ft 508 kts 332°
2026-05-05 16:34 -4.54128 112.72547 33900 ft 508 kts 332°
2026-05-05 16:35 -4.47982 112.69034 33901 ft 509 kts 331°
2026-05-05 16:35 -4.41820 112.65518 33900 ft 509 kts 331°
2026-05-05 16:36 -4.35660 112.62008 33901 ft 509 kts 332°
2026-05-05 16:36 -4.29503 112.58496 33900 ft 509 kts 332°
2026-05-05 16:37 -4.23348 112.54987 33900 ft 509 kts 332°
2026-05-05 16:37 -4.17188 112.51475 33901 ft 510 kts 331°
2026-05-05 16:38 -4.11019 112.47953 33900 ft 511 kts 331°
2026-05-05 16:38 -4.04840 112.44428 33900 ft 511 kts 331°
2026-05-05 16:39 -3.98704 112.40931 33901 ft 510 kts 331°
2026-05-05 16:39 -3.92532 112.37417 33897 ft 510 kts 331°
2026-05-05 16:40 -3.86361 112.33903 33899 ft 510 kts 331°
2026-05-05 16:40 -3.80176 112.30381 33900 ft 512 kts 331°
2026-05-05 16:41 -3.73979 112.26852 33900 ft 512 kts 331°
2026-05-05 16:41 -3.67779 112.23319 33900 ft 512 kts 331°
2026-05-05 16:42 -3.61575 112.19786 33897 ft 512 kts 331°
2026-05-05 16:42 -3.55424 112.16284 33897 ft 512 kts 331°
2026-05-05 16:43 -3.49239 112.12761 33897 ft 510 kts 331°
2026-05-05 16:43 -3.44112 112.09843 33897 ft 510 kts 331°
2026-05-05 16:44 -3.37944 112.06332 33900 ft 510 kts 331°
2026-05-05 16:44 -3.31778 112.02826 33900 ft 510 kts 331°
2026-05-05 16:45 -3.25606 111.99316 33897 ft 510 kts 331°
2026-05-05 16:45 -3.19439 111.95804 33900 ft 510 kts 331°
2026-05-05 16:46 -3.13263 111.92293 33900 ft 510 kts 331°
2026-05-05 16:46 -3.07097 111.88783 33900 ft 510 kts 332°
2026-05-05 16:47 -3.00931 111.85279 33900 ft 510 kts 331°
2026-05-05 16:47 -2.94811 111.81801 33900 ft 510 kts 332°
2026-05-05 16:48 -2.88645 111.78292 33895 ft 510 kts 332°
2026-05-05 16:48 -2.82477 111.74786 33897 ft 510 kts 331°
2026-05-05 16:49 -2.76303 111.71277 33900 ft 511 kts 331°
2026-05-05 16:49 -2.70395 111.67341 33903 ft 512 kts 321°
2026-05-05 16:50 -2.64986 111.62691 33900 ft 513 kts 319°
2026-05-05 16:50 -2.59676 111.57927 33900 ft 513 kts 319°
2026-05-05 16:51 -2.54373 111.53150 33897 ft 513 kts 319°
2026-05-05 16:51 -2.49055 111.48383 33897 ft 513 kts 319°
2026-05-05 16:52 -2.43773 111.43665 33897 ft 511 kts 319°
2026-05-05 16:52 -2.38473 111.38940 33903 ft 510 kts 319°
2026-05-05 16:53 -2.33151 111.34191 33903 ft 510 kts 319°
2026-05-05 16:53 -2.27884 111.29484 33903 ft 510 kts 319°
2026-05-05 16:54 -2.22598 111.24755 33908 ft 510 kts 319°
2026-05-05 16:54 -2.17301 111.20028 33909 ft 510 kts 319°
2026-05-05 16:55 -2.12003 111.15309 33905 ft 510 kts 319°
2026-05-05 16:55 -2.06695 111.10572 33908 ft 511 kts 319°
2026-05-05 16:56 -2.01430 111.05856 33908 ft 512 kts 319°
2026-05-05 16:56 -1.96126 111.01106 33912 ft 512 kts 319°
2026-05-05 16:57 -1.90819 110.96346 33910 ft 512 kts 319°
2026-05-05 16:57 -1.85522 110.91599 33911 ft 512 kts 318°
2026-05-05 16:58 -1.80218 110.86848 33912 ft 512 kts 319°
2026-05-05 16:58 -1.74909 110.82097 33911 ft 512 kts 319°
2026-05-05 16:59 -1.69596 110.77341 33914 ft 513 kts 319°
2026-05-05 16:59 -1.64277 110.72573 33911 ft 513 kts 319°
2026-05-05 17:00 -1.58981 110.67834 33914 ft 514 kts 319°
2026-05-05 17:00 -1.53657 110.63062 33912 ft 514 kts 318°
2026-05-05 17:01 -1.48326 110.58291 33906 ft 514 kts 319°
2026-05-05 17:01 -1.43004 110.53526 33906 ft 513 kts 318°
2026-05-05 17:02 -1.37668 110.48751 33906 ft 515 kts 319°
2026-05-05 17:02 -1.32351 110.43994 33903 ft 516 kts 319°
2026-05-05 17:03 -1.26988 110.39241 33903 ft 515 kts 319°
2026-05-05 17:03 -1.21543 110.34579 33903 ft 515 kts 320°
2026-05-05 17:04 -1.16081 110.29931 33900 ft 515 kts 320°
2026-05-05 17:04 -1.10619 110.25272 33895 ft 515 kts 320°
2026-05-05 17:05 -1.05165 110.20612 33894 ft 515 kts 320°
2026-05-05 17:05 -0.99751 110.15983 33892 ft 515 kts 320°
2026-05-05 17:06 -0.94305 110.11323 33892 ft 515 kts 320°
2026-05-05 17:06 -0.88863 110.06667 33892 ft 515 kts 320°
2026-05-05 17:07 -0.83408 110.02012 33889 ft 515 kts 320°
2026-05-05 17:07 -0.77957 109.97348 33889 ft 515 kts 320°
2026-05-05 17:08 -0.72504 109.92683 33886 ft 515 kts 320°
2026-05-05 17:08 -0.67047 109.88018 33887 ft 517 kts 320°
2026-05-05 17:09 -0.61574 109.83344 33886 ft 517 kts 320°
2026-05-05 17:09 -0.56145 109.78696 33886 ft 517 kts 320°
2026-05-05 17:10 -0.50671 109.74015 33884 ft 518 kts 320°
2026-05-05 17:10 -0.45190 109.69329 33884 ft 518 kts 320°
2026-05-05 17:11 -0.39713 109.64653 33884 ft 518 kts 320°
2026-05-05 17:11 -0.34236 109.59974 33884 ft 518 kts 320°
2026-05-05 17:12 -0.28761 109.55294 33884 ft 517 kts 320°
2026-05-05 17:12 -0.23300 109.50615 33884 ft 517 kts 320°
2026-05-05 17:13 -0.17832 109.45937 33884 ft 517 kts 320°
2026-05-05 17:13 -0.12367 109.41270 33883 ft 516 kts 320°
2026-05-05 17:14 -0.06927 109.36596 33881 ft 516 kts 319°
2026-05-05 17:14 -0.01641 109.31755 33881 ft 516 kts 317°
2026-05-05 17:15 0.03595 109.26847 33880 ft 515 kts 317°
2026-05-05 17:15 0.08805 109.21984 33881 ft 515 kts 317°
2026-05-05 17:16 0.14087 109.17080 33881 ft 515 kts 317°
2026-05-05 17:16 0.19311 109.12246 33881 ft 515 kts 317°
2026-05-05 17:17 0.24565 109.07378 33881 ft 515 kts 317°
2026-05-05 17:17 0.29822 109.02511 33881 ft 515 kts 317°
2026-05-05 17:18 0.35091 108.97632 33881 ft 515 kts 317°
2026-05-05 17:18 0.40350 108.92762 33881 ft 515 kts 317°
2026-05-05 17:19 0.45605 108.87896 33878 ft 515 kts 317°
2026-05-05 17:19 0.50863 108.83021 33878 ft 515 kts 318°
2026-05-05 17:20 0.56125 108.78148 33878 ft 515 kts 317°
2026-05-05 17:20 0.61352 108.73297 33879 ft 517 kts 317°
2026-05-05 17:21 0.66628 108.68408 33878 ft 517 kts 317°
2026-05-05 17:22 0.74548 108.61068 33878 ft 518 kts 317°
2026-05-05 17:22 0.79829 108.56168 33876 ft 519 kts 317°
2026-05-05 17:23 0.85118 108.51264 33875 ft 519 kts 317°
2026-05-05 17:23 0.90413 108.46357 33878 ft 519 kts 317°
2026-05-05 17:24 0.95705 108.41454 33873 ft 519 kts 317°
2026-05-05 17:24 1.01005 108.36539 33876 ft 520 kts 317°
2026-05-05 17:25 1.06274 108.31650 33876 ft 520 kts 317°
2026-05-05 17:25 1.11572 108.26729 33875 ft 519 kts 317°
2026-05-05 17:26 1.16866 108.21824 33875 ft 518 kts 317°
2026-05-05 17:26 1.22154 108.16924 33876 ft 518 kts 317°
2026-05-05 17:27 1.27435 108.12022 33876 ft 518 kts 317°
2026-05-05 17:27 1.32724 108.07111 33873 ft 518 kts 317°
2026-05-05 17:28 1.38004 108.02212 33873 ft 518 kts 317°
2026-05-05 17:28 1.43252 107.97337 33873 ft 518 kts 317°
2026-05-05 17:29 1.48528 107.92408 33873 ft 517 kts 317°
2026-05-05 17:29 1.53778 107.87492 33873 ft 517 kts 317°
2026-05-05 17:30 1.59002 107.82603 33873 ft 517 kts 317°
2026-05-05 17:30 1.64258 107.77685 33873 ft 517 kts 317°
2026-05-05 17:31 1.69509 107.72775 33874 ft 517 kts 317°
2026-05-05 17:31 1.74764 107.67860 33873 ft 516 kts 317°
2026-05-05 17:32 1.79156 107.63751 33873 ft 516 kts 317°
2026-05-05 17:32 1.84367 107.58876 33873 ft 516 kts 317°
2026-05-05 17:33 1.89614 107.53967 33873 ft 517 kts 317°
2026-05-05 17:33 1.94875 107.49046 33873 ft 517 kts 317°
2026-05-05 17:34 2.00129 107.44131 33873 ft 517 kts 317°
2026-05-05 17:34 2.05348 107.39263 33870 ft 517 kts 317°
2026-05-05 17:35 2.10607 107.34362 33870 ft 516 kts 317°
2026-05-05 17:35 2.15871 107.29460 33870 ft 516 kts 317°
2026-05-05 17:36 2.21125 107.24561 33871 ft 516 kts 317°
2026-05-05 17:36 2.26384 107.19656 33870 ft 517 kts 317°
2026-05-05 17:37 2.31643 107.14752 33870 ft 517 kts 317°
2026-05-05 17:37 2.36198 107.09220 33870 ft 516 kts 300°
2026-05-05 17:38 2.38902 107.02599 33870 ft 516 kts 287°
2026-05-05 17:38 2.40843 106.95723 33870 ft 517 kts 284°
2026-05-05 17:39 2.42686 106.88774 33870 ft 517 kts 284°
2026-05-05 17:39 2.44556 106.81830 33870 ft 517 kts 285°
2026-05-05 17:40 2.46460 106.74891 33867 ft 517 kts 285°
2026-05-05 17:40 2.48375 106.67947 33869 ft 517 kts 285°
2026-05-05 17:41 2.50290 106.61007 33870 ft 517 kts 285°
2026-05-05 17:41 2.52196 106.54085 33870 ft 517 kts 285°
2026-05-05 17:42 2.54089 106.47185 33867 ft 517 kts 285°
2026-05-05 17:42 2.55984 106.40253 33867 ft 517 kts 285°
2026-05-05 17:43 2.57898 106.33317 33867 ft 517 kts 285°
2026-05-05 17:43 2.59819 106.26394 33867 ft 516 kts 285°
2026-05-05 17:44 2.61735 106.19471 33867 ft 516 kts 285°
2026-05-05 17:44 2.63650 106.12539 33867 ft 516 kts 285°
2026-05-05 17:45 2.65569 106.05617 33865 ft 516 kts 285°
2026-05-05 17:45 2.67482 105.98699 33865 ft 516 kts 285°
2026-05-05 17:46 2.69396 105.91774 33864 ft 516 kts 285°
2026-05-05 17:46 2.71305 105.84863 33865 ft 516 kts 285°
2026-05-05 17:47 2.73218 105.77940 33865 ft 516 kts 285°
2026-05-05 17:47 2.75116 105.71071 33865 ft 516 kts 285°
2026-05-05 17:48 2.77029 105.64148 33862 ft 516 kts 285°
2026-05-05 17:48 2.78941 105.57230 33862 ft 515 kts 285°
2026-05-05 17:49 2.80848 105.50328 33862 ft 515 kts 285°
2026-05-05 17:49 2.82753 105.43429 33862 ft 515 kts 285°
2026-05-05 17:50 2.84657 105.36528 33862 ft 515 kts 285°
2026-05-05 17:50 2.86566 105.29619 33862 ft 515 kts 285°
2026-05-05 17:51 2.88474 105.22715 33864 ft 514 kts 285°
2026-05-05 17:51 2.90363 105.15866 33862 ft 514 kts 285°
2026-05-05 17:52 2.92273 105.08959 33859 ft 514 kts 285°
2026-05-05 17:52 2.94176 105.02066 33859 ft 514 kts 285°
2026-05-05 17:53 2.96083 104.95169 33859 ft 514 kts 285°
2026-05-05 17:53 2.97987 104.88271 33858 ft 514 kts 285°
2026-05-05 17:54 2.99879 104.81417 33857 ft 514 kts 285°
2026-05-05 17:54 3.01783 104.74519 33856 ft 514 kts 285°
2026-05-05 17:55 3.03684 104.67623 33856 ft 514 kts 285°
2026-05-05 17:55 3.05584 104.60726 33856 ft 514 kts 285°
2026-05-05 17:56 3.07481 104.53835 33856 ft 514 kts 285°
2026-05-05 17:56 3.09386 104.46928 33856 ft 514 kts 285°
2026-05-05 17:57 3.11284 104.40033 33856 ft 514 kts 285°
2026-05-05 17:57 3.13182 104.33132 33862 ft 514 kts 285°
2026-05-05 17:58 3.15066 104.26230 33862 ft 514 kts 284°
2026-05-05 17:58 3.16938 104.19330 33863 ft 514 kts 284°
2026-05-05 17:59 3.18821 104.12488 33862 ft 513 kts 285°
2026-05-05 17:59 3.20771 104.05613 33862 ft 513 kts 285°
2026-05-05 18:00 3.22728 103.98741 33864 ft 513 kts 285°
2026-05-05 18:00 3.24678 103.91868 33856 ft 513 kts 285°
2026-05-05 18:01 3.26630 103.84987 33852 ft 513 kts 285°
2026-05-05 18:01 3.28577 103.78117 33848 ft 513 kts 285°
2026-05-05 18:02 3.30524 103.71233 33848 ft 513 kts 285°
2026-05-05 18:02 3.32466 103.64362 33848 ft 514 kts 285°
2026-05-05 18:03 3.34413 103.57485 33842 ft 513 kts 285°
2026-05-05 18:03 3.36453 103.50638 33839 ft 513 kts 290°
2026-05-05 18:04 3.39903 103.44476 33843 ft 513 kts 309°
2026-05-05 18:04 3.45234 103.39782 33838 ft 513 kts 329°
2026-05-05 18:05 3.51703 103.36786 33848 ft 513 kts 338°
2026-05-05 18:05 3.58380 103.34185 33860 ft 514 kts 339°
2026-05-05 18:06 3.65050 103.31614 33873 ft 514 kts 338°
2026-05-05 18:06 3.71705 103.28997 33886 ft 514 kts 338°
2026-05-05 18:07 3.78355 103.26357 33884 ft 514 kts 338°
2026-05-05 18:07 3.84999 103.23713 33884 ft 514 kts 338°
2026-05-05 18:08 3.91607 103.21083 33874 ft 514 kts 338°
2026-05-05 18:08 3.98250 103.18440 33865 ft 514 kts 338°
2026-05-05 18:09 4.04908 103.15792 33860 ft 514 kts 338°
2026-05-05 18:09 4.11568 103.13145 33849 ft 514 kts 338°
2026-05-05 18:10 4.18176 103.10513 33856 ft 512 kts 338°
2026-05-05 18:10 4.24802 103.07876 33856 ft 512 kts 338°
2026-05-05 18:11 4.31415 103.05246 33869 ft 512 kts 338°
2026-05-05 18:11 4.38052 103.02603 33867 ft 512 kts 338°
2026-05-05 18:12 4.44672 102.99965 33867 ft 512 kts 338°
2026-05-05 18:12 4.51297 102.97328 33873 ft 513 kts 338°
2026-05-05 18:13 4.57925 102.94690 33874 ft 513 kts 338°
2026-05-05 18:13 4.64560 102.92051 33875 ft 513 kts 338°
2026-05-05 18:14 4.71184 102.89411 33881 ft 513 kts 338°
2026-05-05 18:14 4.77777 102.86778 33876 ft 513 kts 338°
2026-05-05 18:15 4.84410 102.84131 33878 ft 513 kts 338°
2026-05-05 18:15 4.91036 102.81494 33876 ft 513 kts 338°
2026-05-05 18:16 4.97674 102.78857 33873 ft 513 kts 338°
2026-05-05 18:16 5.04296 102.76224 33880 ft 512 kts 338°
2026-05-05 18:17 5.10923 102.73588 33875 ft 512 kts 338°
2026-05-05 18:17 5.17543 102.70956 33876 ft 512 kts 338°
2026-05-05 18:18 5.24129 102.68322 33872 ft 512 kts 338°
2026-05-05 18:18 5.30743 102.65650 33873 ft 512 kts 338°
2026-05-05 18:19 5.37350 102.62982 33872 ft 512 kts 338°
2026-05-05 18:19 5.43973 102.60333 33875 ft 512 kts 338°
2026-05-05 18:20 5.50597 102.57690 33870 ft 512 kts 338°
2026-05-05 18:20 5.57223 102.55046 33869 ft 512 kts 338°
2026-05-05 18:21 5.62726 102.52847 33871 ft 512 kts 338°
2026-05-05 18:21 5.69352 102.50197 33862 ft 513 kts 338°
2026-05-05 18:22 5.75983 102.47546 33870 ft 513 kts 338°
2026-05-05 18:22 5.82613 102.44893 33859 ft 513 kts 338°
2026-05-05 18:23 5.89245 102.42236 33859 ft 512 kts 338°
2026-05-05 18:23 5.95831 102.39599 33852 ft 513 kts 338°
2026-05-05 18:24 6.02467 102.36943 33859 ft 514 kts 338°
2026-05-05 18:24 6.09113 102.34283 33856 ft 514 kts 338°
2026-05-05 18:25 6.15740 102.31583 33855 ft 514 kts 334°
2026-05-05 18:25 6.22161 102.28414 33856 ft 514 kts 333°
2026-05-05 18:26 6.28541 102.25142 33858 ft 514 kts 332°
2026-05-05 18:26 6.34873 102.21871 33851 ft 515 kts 332°
2026-05-05 18:27 6.41246 102.18586 33855 ft 516 kts 332°
2026-05-05 18:27 6.47654 102.15290 33851 ft 517 kts 332°
2026-05-05 18:28 6.57264 102.10349 33850 ft 516 kts 332°
2026-05-05 18:28 6.63665 102.07056 33851 ft 517 kts 332°
2026-05-05 18:29 6.70068 102.03760 33848 ft 517 kts 333°
2026-05-05 18:29 6.76492 102.00451 33851 ft 518 kts 333°
2026-05-05 18:30 6.82922 101.97138 33851 ft 520 kts 333°
2026-05-05 18:30 6.89316 101.93844 33852 ft 519 kts 332°
2026-05-05 18:31 6.95772 101.90519 33852 ft 518 kts 333°
2026-05-05 18:31 7.02162 101.87227 33850 ft 519 kts 333°
2026-05-05 18:32 7.08592 101.83910 33851 ft 519 kts 332°
2026-05-05 18:32 7.15007 101.80598 33849 ft 518 kts 333°
2026-05-05 18:33 7.21439 101.77279 33849 ft 520 kts 332°
2026-05-05 18:33 7.27876 101.73958 33850 ft 519 kts 333°
2026-05-05 18:34 7.34299 101.70644 33852 ft 519 kts 332°
2026-05-05 18:34 7.40731 101.67322 33850 ft 520 kts 333°
2026-05-05 18:35 7.47158 101.63996 33849 ft 517 kts 333°
2026-05-05 18:35 7.53543 101.60695 33852 ft 514 kts 333°
2026-05-05 18:36 7.59874 101.57421 33851 ft 515 kts 333°
2026-05-05 18:36 7.66251 101.54126 33851 ft 514 kts 333°
2026-05-05 18:37 7.72630 101.50849 33852 ft 514 kts 333°
2026-05-05 18:37 7.79019 101.47575 33851 ft 515 kts 334°
2026-05-05 18:38 7.85371 101.44322 33848 ft 515 kts 333°
2026-05-05 18:38 7.91789 101.41028 33852 ft 514 kts 333°
2026-05-05 18:39 7.98173 101.37749 33852 ft 516 kts 333°
2026-05-05 18:39 8.04559 101.34469 33852 ft 515 kts 333°
2026-05-05 18:40 8.10894 101.31213 33851 ft 514 kts 333°
2026-05-05 18:40 8.17253 101.27944 33850 ft 511 kts 334°
2026-05-05 18:41 8.23577 101.24691 33851 ft 508 kts 334°
2026-05-05 18:41 8.29866 101.21458 33851 ft 507 kts 334°
2026-05-05 18:42 8.36157 101.18222 33851 ft 507 kts 334°
2026-05-05 18:42 8.42446 101.14984 33851 ft 507 kts 334°
2026-05-05 18:43 8.48748 101.11740 33851 ft 507 kts 334°
2026-05-05 18:43 8.55037 101.08503 33851 ft 507 kts 334°
2026-05-05 18:44 8.61296 101.05284 33851 ft 508 kts 334°
2026-05-05 18:44 8.67595 101.02060 33851 ft 508 kts 334°
2026-05-05 18:45 8.73901 100.98835 33851 ft 508 kts 334°
2026-05-05 18:45 8.80209 100.95607 33851 ft 508 kts 334°
2026-05-05 18:46 8.86516 100.92376 33848 ft 508 kts 334°
2026-05-05 18:46 8.92820 100.89146 33848 ft 508 kts 334°
2026-05-05 18:47 8.99100 100.85927 33854 ft 509 kts 334°
2026-05-05 18:47 9.05419 100.82686 33853 ft 509 kts 334°
2026-05-05 18:48 9.11747 100.79438 33851 ft 509 kts 334°
2026-05-05 18:48 9.18072 100.76192 33851 ft 509 kts 334°
2026-05-05 18:49 9.24386 100.72951 33853 ft 509 kts 334°
2026-05-05 18:49 9.30706 100.69705 33850 ft 509 kts 334°
2026-05-05 18:50 9.37041 100.66447 33851 ft 512 kts 334°
2026-05-05 18:50 9.43372 100.63193 33850 ft 513 kts 334°
2026-05-05 18:51 9.49730 100.59924 33851 ft 512 kts 333°
2026-05-05 18:51 9.56091 100.56653 33853 ft 513 kts 333°
2026-05-05 18:52 9.62465 100.53373 33851 ft 515 kts 334°
2026-05-05 18:52 9.68848 100.50088 33849 ft 514 kts 333°
2026-05-05 18:53 9.75246 100.46822 33851 ft 515 kts 333°
2026-05-05 18:53 9.81665 100.43573 33851 ft 516 kts 334°
2026-05-05 18:54 9.88090 100.40323 33853 ft 515 kts 334°
2026-05-05 18:54 9.94459 100.37097 33853 ft 514 kts 333°
2026-05-05 18:55 10.00864 100.33845 33853 ft 515 kts 334°
2026-05-05 18:55 10.07277 100.30590 33855 ft 514 kts 333°
2026-05-05 18:56 10.13622 100.27371 33853 ft 508 kts 333°
2026-05-05 18:56 10.19950 100.24159 33854 ft 508 kts 333°
2026-05-05 18:57 10.26268 100.20949 33854 ft 508 kts 333°
2026-05-05 18:57 10.32595 100.17737 33854 ft 510 kts 333°
2026-05-05 18:58 10.38951 100.14503 33853 ft 511 kts 333°
2026-05-05 18:58 10.45325 100.11261 33854 ft 514 kts 333°
2026-05-05 18:59 10.51738 100.07996 33854 ft 516 kts 333°
2026-05-05 18:59 10.58164 100.04729 33853 ft 516 kts 333°
2026-05-05 19:00 10.64588 100.01459 33853 ft 516 kts 333°
2026-05-05 19:00 10.71000 99.98188 33854 ft 516 kts 333°
2026-05-05 19:01 10.77391 99.94929 33851 ft 516 kts 333°
2026-05-05 19:01 10.83799 99.91663 33848 ft 511 kts 332°
2026-05-05 19:02 10.90144 99.88428 33852 ft 509 kts 332°
2026-05-05 19:02 10.96483 99.85190 33852 ft 510 kts 333°
2026-05-05 19:03 11.02820 99.81951 33854 ft 509 kts 333°
2026-05-05 19:03 11.09149 99.78718 33854 ft 509 kts 332°
2026-05-05 19:04 11.15470 99.75481 33856 ft 509 kts 332°
2026-05-05 19:04 11.21768 99.72188 33854 ft 508 kts 332°
2026-05-05 19:05 11.28004 99.68899 33854 ft 508 kts 332°
2026-05-05 19:05 11.34283 99.65593 33856 ft 508 kts 332°
2026-05-05 19:06 11.40565 99.62288 33857 ft 508 kts 332°
2026-05-05 19:06 11.46849 99.58981 33860 ft 508 kts 332°
2026-05-05 19:07 11.52076 99.56230 33860 ft 508 kts 332°
2026-05-05 19:07 11.59413 99.52369 33866 ft 508 kts 332°
2026-05-05 19:08 11.65688 99.49070 33868 ft 508 kts 332°
2026-05-05 19:08 11.70918 99.46339 33870 ft 508 kts 332°
2026-05-05 19:09 11.77212 99.43053 33874 ft 508 kts 332°
2026-05-05 19:09 11.83506 99.39768 33874 ft 508 kts 332°
2026-05-05 19:10 11.89803 99.36476 33876 ft 508 kts 332°
2026-05-05 19:10 11.96093 99.33188 33871 ft 507 kts 332°
2026-05-05 19:11 12.02370 99.29899 33873 ft 507 kts 332°
2026-05-05 19:11 12.08610 99.26631 33881 ft 507 kts 332°
2026-05-05 19:12 12.14918 99.23325 33868 ft 507 kts 332°
2026-05-05 19:12 12.21201 99.20032 33877 ft 507 kts 332°
2026-05-05 19:13 12.27442 99.16755 33873 ft 507 kts 332°
2026-05-05 19:13 12.33715 99.13463 33879 ft 507 kts 332°
2026-05-05 19:14 12.39997 99.10165 33879 ft 507 kts 332°
2026-05-05 19:14 12.46278 99.06867 33871 ft 508 kts 332°
2026-05-05 19:15 12.52586 99.03551 33879 ft 509 kts 332°
2026-05-05 19:15 12.58885 99.00238 33879 ft 509 kts 332°
2026-05-05 19:16 12.65195 98.96918 33880 ft 508 kts 332°
2026-05-05 19:16 12.71454 98.93621 33869 ft 504 kts 332°
2026-05-05 19:17 12.77648 98.90355 33875 ft 504 kts 332°
2026-05-05 19:17 12.83889 98.87065 33873 ft 504 kts 332°
2026-05-05 19:18 12.90136 98.83770 33875 ft 504 kts 332°
2026-05-05 19:18 12.96379 98.80476 33878 ft 504 kts 332°
2026-05-05 19:19 13.02618 98.77182 33869 ft 503 kts 332°
2026-05-05 19:19 13.08841 98.73895 33874 ft 501 kts 332°
2026-05-05 19:20 13.15037 98.70618 33876 ft 501 kts 332°
2026-05-05 19:20 13.21226 98.67344 33881 ft 500 kts 332°
2026-05-05 19:21 13.27364 98.64095 33868 ft 500 kts 332°
2026-05-05 19:21 13.33549 98.60820 33867 ft 500 kts 332°
2026-05-05 19:22 13.39733 98.57542 33873 ft 500 kts 332°
2026-05-05 19:22 13.45922 98.54262 33874 ft 500 kts 332°
2026-05-05 19:23 13.52120 98.50988 33878 ft 500 kts 333°
2026-05-05 19:23 13.58333 98.47741 33864 ft 500 kts 333°
2026-05-05 19:24 13.64539 98.44503 33870 ft 500 kts 333°
2026-05-05 19:24 13.70751 98.41255 33869 ft 501 kts 333°
2026-05-05 19:25 13.76956 98.38005 33870 ft 500 kts 333°
2026-05-05 19:25 13.83110 98.34781 33875 ft 500 kts 333°
2026-05-05 19:26 13.89305 98.31534 33864 ft 499 kts 332°
2026-05-05 19:26 13.95504 98.28282 33864 ft 499 kts 332°
2026-05-05 19:27 14.01706 98.25026 33864 ft 499 kts 332°
2026-05-05 19:27 14.07895 98.21776 33869 ft 499 kts 332°
2026-05-05 19:28 14.14087 98.18526 33859 ft 499 kts 332°
2026-05-05 19:28 14.20273 98.15279 33859 ft 499 kts 332°
2026-05-05 19:29 14.26462 98.12030 33862 ft 499 kts 332°
2026-05-05 19:29 14.32607 98.08801 33862 ft 499 kts 332°
2026-05-05 19:30 14.38799 98.05544 33865 ft 499 kts 332°
2026-05-05 19:30 14.44981 98.02292 33858 ft 499 kts 332°
2026-05-05 19:31 14.51168 97.99034 33856 ft 499 kts 332°
2026-05-05 19:31 14.57350 97.95777 33854 ft 499 kts 332°
2026-05-05 19:32 14.63531 97.92517 33856 ft 499 kts 333°
2026-05-05 19:32 14.69728 97.89248 33854 ft 499 kts 332°
2026-05-05 19:33 14.75907 97.85977 33854 ft 499 kts 332°
2026-05-05 19:33 14.82087 97.82701 33856 ft 499 kts 332°
2026-05-05 19:34 14.88256 97.79429 33857 ft 497 kts 332°
2026-05-05 19:35 14.97494 97.74524 33856 ft 497 kts 332°
2026-05-05 19:35 15.03610 97.71275 33851 ft 497 kts 332°
2026-05-05 19:36 15.09800 97.67984 33851 ft 497 kts 332°
2026-05-05 19:36 15.15923 97.64727 33851 ft 497 kts 332°
2026-05-05 19:37 15.22084 97.61450 33849 ft 497 kts 332°
2026-05-05 19:37 15.28236 97.58171 33848 ft 497 kts 332°
2026-05-05 19:38 15.34398 97.54885 33849 ft 498 kts 332°
2026-05-05 19:38 15.40559 97.51600 33850 ft 498 kts 332°
2026-05-05 19:39 15.46724 97.48334 33851 ft 498 kts 333°
2026-05-05 19:39 15.52888 97.45152 33853 ft 498 kts 333°
2026-05-05 19:40 15.59097 97.41966 33851 ft 498 kts 333°
2026-05-05 19:40 15.65312 97.38767 33851 ft 498 kts 333°
2026-05-05 19:41 15.71520 97.35559 33850 ft 498 kts 333°
2026-05-05 19:41 15.77730 97.32349 33851 ft 498 kts 333°
2026-05-05 19:42 15.83938 97.29138 33848 ft 498 kts 333°
2026-05-05 19:42 15.90149 97.25923 33848 ft 499 kts 333°
2026-05-05 19:43 15.96367 97.22702 33848 ft 499 kts 333°
2026-05-05 19:43 16.02583 97.19479 33847 ft 499 kts 333°
2026-05-05 19:44 16.08787 97.16263 33848 ft 499 kts 333°
2026-05-05 19:44 16.14971 97.13053 33849 ft 499 kts 333°
2026-05-05 19:45 16.21180 97.09828 33848 ft 499 kts 332°
2026-05-05 19:45 16.27387 97.06602 33847 ft 498 kts 332°
2026-05-05 19:46 16.33590 97.03375 33843 ft 498 kts 332°
2026-05-05 19:46 16.39790 97.00147 33844 ft 498 kts 332°
2026-05-05 19:47 16.45987 96.96919 33846 ft 498 kts 332°
2026-05-05 19:47 16.52194 96.93684 33843 ft 498 kts 332°
2026-05-05 19:48 16.58398 96.90447 33844 ft 498 kts 332°
2026-05-05 19:48 16.64593 96.87213 33844 ft 499 kts 332°
2026-05-05 19:49 16.70766 96.83986 33842 ft 499 kts 332°
2026-05-05 19:49 16.76978 96.80739 33843 ft 499 kts 332°
2026-05-05 19:50 16.83230 96.77472 33846 ft 499 kts 332°
2026-05-05 19:50 16.89394 96.74242 33847 ft 499 kts 332°
2026-05-05 19:51 16.95600 96.70990 33849 ft 499 kts 332°
2026-05-05 19:51 17.01793 96.67745 33850 ft 497 kts 332°
2026-05-05 19:52 17.07974 96.64501 33852 ft 497 kts 332°
2026-05-05 19:52 17.14155 96.61254 33848 ft 497 kts 332°
2026-05-05 19:53 17.20338 96.58004 33842 ft 497 kts 332°
2026-05-05 19:53 17.26513 96.54756 33842 ft 497 kts 332°
2026-05-05 19:54 17.32206 96.50737 33845 ft 492 kts 316°
2026-05-05 19:54 17.36718 96.45394 33841 ft 489 kts 307°
2026-05-05 19:55 17.40144 96.40661 33844 ft 490 kts 306°
2026-05-05 19:55 17.44191 96.34916 33842 ft 490 kts 306°
2026-05-05 19:56 17.48263 96.29193 33844 ft 490 kts 306°
2026-05-05 19:56 17.52340 96.23518 33846 ft 490 kts 306°
2026-05-05 19:57 17.56448 96.17815 33841 ft 490 kts 306°
2026-05-05 19:57 17.60557 96.12106 33844 ft 490 kts 306°
2026-05-05 19:58 17.64666 96.06394 33852 ft 490 kts 306°
2026-05-05 19:58 17.68755 96.00697 33848 ft 488 kts 306°
2026-05-05 19:59 17.72833 95.95007 33846 ft 488 kts 306°
2026-05-05 19:59 17.76907 95.89317 33848 ft 488 kts 306°
2026-05-05 20:00 17.80982 95.83624 33843 ft 487 kts 306°
2026-05-05 20:00 17.85029 95.77966 33847 ft 487 kts 305°
2026-05-05 20:01 17.89098 95.72275 33847 ft 487 kts 306°
2026-05-05 20:01 17.93169 95.66578 33845 ft 487 kts 305°
2026-05-05 20:02 17.97232 95.60881 33840 ft 487 kts 305°
2026-05-05 20:02 18.01295 95.55181 33827 ft 487 kts 305°
2026-05-05 20:03 18.05347 95.49491 33843 ft 487 kts 305°
2026-05-05 20:03 18.09406 95.43787 33839 ft 487 kts 304°
2026-05-05 20:04 18.13461 95.38083 33823 ft 487 kts 305°
2026-05-05 20:04 18.17514 95.32380 33833 ft 487 kts 304°
2026-05-05 20:05 18.21533 95.26721 33850 ft 486 kts 304°
2026-05-05 20:05 18.25601 95.20984 33847 ft 486 kts 304°
2026-05-05 20:06 18.29612 95.15319 33840 ft 486 kts 304°
2026-05-05 20:06 18.33529 95.09541 33839 ft 485 kts 302°
2026-05-05 20:07 18.37355 95.03688 33846 ft 485 kts 302°
2026-05-05 20:07 18.41179 94.97835 33854 ft 484 kts 302°
2026-05-05 20:08 18.45015 94.91990 33859 ft 484 kts 302°
2026-05-05 20:08 18.48845 94.86162 33866 ft 484 kts 302°
2026-05-05 20:09 18.52676 94.80329 33867 ft 484 kts 302°
2026-05-05 20:09 18.56508 94.74492 33867 ft 484 kts 302°
2026-05-05 20:10 18.60392 94.68690 33871 ft 485 kts 303°
2026-05-05 20:10 18.64333 94.62980 33866 ft 484 kts 303°
2026-05-05 20:11 18.68305 94.57242 33866 ft 484 kts 303°
2026-05-05 20:11 18.72293 94.51457 33862 ft 485 kts 303°
2026-05-05 20:12 18.76228 94.45724 33862 ft 485 kts 303°
2026-05-05 20:12 18.80180 94.39960 33855 ft 485 kts 303°
2026-05-05 20:13 18.84139 94.34183 33852 ft 485 kts 303°
2026-05-05 20:13 18.88089 94.28415 33853 ft 485 kts 303°
2026-05-05 20:14 18.92042 94.22636 33847 ft 485 kts 303°
2026-05-05 20:14 18.95993 94.16858 33851 ft 484 kts 303°
2026-05-05 20:15 18.99931 94.11096 33845 ft 483 kts 303°
2026-05-05 20:15 19.03832 94.05375 33844 ft 483 kts 303°
2026-05-05 20:16 19.07760 93.99609 33850 ft 483 kts 303°
2026-05-05 20:16 19.11688 93.93838 33841 ft 482 kts 303°
2026-05-05 20:17 19.15608 93.88079 33843 ft 482 kts 303°
2026-05-05 20:17 19.19524 93.82319 33840 ft 482 kts 303°
2026-05-05 20:18 19.23441 93.76551 33840 ft 482 kts 303°
2026-05-05 20:18 19.27361 93.70773 33841 ft 482 kts 303°
2026-05-05 20:19 19.31269 93.65009 33840 ft 482 kts 303°
2026-05-05 20:19 19.35177 93.59237 33840 ft 482 kts 303°
2026-05-05 20:20 19.39056 93.53500 33839 ft 482 kts 303°
2026-05-05 20:20 19.42960 93.47723 33844 ft 482 kts 303°
2026-05-05 20:21 19.46862 93.41947 33837 ft 481 kts 303°
2026-05-05 20:21 19.50752 93.36181 33837 ft 481 kts 302°
2026-05-05 20:22 19.54643 93.30404 33834 ft 481 kts 302°
2026-05-05 20:22 19.58535 93.24622 33835 ft 481 kts 303°
2026-05-05 20:23 19.62418 93.18852 33835 ft 481 kts 302°
2026-05-05 20:23 19.66304 93.13069 33836 ft 481 kts 302°
2026-05-05 20:24 19.70184 93.07287 33835 ft 481 kts 302°
2026-05-05 20:24 19.74067 93.01499 33834 ft 481 kts 302°
2026-05-05 20:25 19.77951 92.95704 33844 ft 482 kts 302°
2026-05-05 20:25 19.81838 92.89901 33836 ft 481 kts 302°
2026-05-05 20:26 19.85707 92.84113 33834 ft 481 kts 302°
2026-05-05 20:26 19.89583 92.78313 33833 ft 481 kts 302°
2026-05-05 20:27 19.93430 92.72548 33839 ft 481 kts 302°
2026-05-05 20:27 19.97327 92.66705 33835 ft 481 kts 302°
2026-05-05 20:28 20.01174 92.60931 33835 ft 482 kts 302°
2026-05-05 20:28 20.05048 92.55109 33833 ft 482 kts 302°
2026-05-05 20:29 20.08926 92.49276 33837 ft 482 kts 302°
2026-05-05 20:29 20.12804 92.43438 33839 ft 483 kts 302°
2026-05-05 20:30 20.16675 92.37601 33837 ft 482 kts 302°
2026-05-05 20:30 20.20520 92.31800 33835 ft 482 kts 302°
2026-05-05 20:31 20.24388 92.25960 33833 ft 483 kts 302°
2026-05-05 20:31 20.28258 92.20113 33829 ft 483 kts 302°
2026-05-05 20:32 20.32124 92.14267 33827 ft 483 kts 302°
2026-05-05 20:32 20.35988 92.08413 33836 ft 483 kts 302°
2026-05-05 20:33 20.39855 92.02549 33832 ft 483 kts 302°
2026-05-05 20:33 20.43699 91.96688 33832 ft 483 kts 302°
2026-05-05 20:34 20.47509 91.90803 33839 ft 482 kts 301°
2026-05-05 20:34 20.51314 91.84911 33830 ft 480 kts 301°
2026-05-05 20:35 20.55100 91.79046 33831 ft 480 kts 301°
2026-05-05 20:35 20.58865 91.73213 33829 ft 480 kts 301°
2026-05-05 20:36 20.62657 91.67334 33836 ft 480 kts 301°
2026-05-05 20:36 20.66442 91.61459 33830 ft 480 kts 301°
2026-05-05 20:37 20.70220 91.55587 33829 ft 480 kts 301°
2026-05-05 20:37 20.74004 91.49705 33831 ft 480 kts 301°
2026-05-05 20:38 20.77782 91.43828 33831 ft 480 kts 301°
2026-05-05 20:38 20.81558 91.37943 33835 ft 480 kts 301°
2026-05-05 20:39 20.85333 91.32055 33831 ft 479 kts 300°
2026-05-05 20:39 20.89074 91.26207 33829 ft 479 kts 300°
2026-05-05 20:40 20.92839 91.20321 33829 ft 479 kts 300°
2026-05-05 20:40 20.96603 91.14434 33835 ft 479 kts 300°
2026-05-05 20:41 21.00370 91.08539 33829 ft 480 kts 300°
2026-05-05 20:41 21.04139 91.02629 33829 ft 480 kts 300°
2026-05-05 20:42 21.07266 90.97719 33829 ft 480 kts 300°
2026-05-05 20:42 21.11022 90.91815 33829 ft 480 kts 300°
2026-05-05 20:43 21.14779 90.85907 33837 ft 480 kts 300°
2026-05-05 20:43 21.18541 90.79986 33829 ft 479 kts 300°
2026-05-05 20:44 21.22269 90.74112 33829 ft 479 kts 300°
2026-05-05 20:44 21.26014 90.68202 33826 ft 479 kts 300°
2026-05-05 20:45 21.31627 90.59334 33826 ft 479 kts 300°
2026-05-05 20:45 21.35365 90.53420 33826 ft 479 kts 300°
2026-05-05 20:46 21.39101 90.47509 33823 ft 479 kts 300°
2026-05-05 20:46 21.42839 90.41590 33823 ft 479 kts 300°
2026-05-05 20:47 21.46551 90.35708 33821 ft 478 kts 300°
2026-05-05 20:47 21.50275 90.29800 33824 ft 476 kts 300°
2026-05-05 20:48 21.53988 90.23904 33820 ft 476 kts 300°
2026-05-05 20:48 21.57692 90.18013 33820 ft 476 kts 300°
2026-05-05 20:49 21.61396 90.12115 33821 ft 476 kts 300°
2026-05-05 20:49 21.65099 90.06212 33820 ft 476 kts 300°
2026-05-05 20:50 21.68798 90.00311 33820 ft 476 kts 300°
2026-05-05 20:50 21.72497 89.94402 33818 ft 476 kts 300°
2026-05-05 20:51 21.76171 89.88529 33817 ft 476 kts 300°
2026-05-05 20:51 21.79870 89.82609 33818 ft 476 kts 300°
2026-05-05 20:52 21.83565 89.76691 33818 ft 475 kts 300°
2026-05-05 20:52 21.87252 89.70780 33818 ft 475 kts 299°
2026-05-05 20:53 21.90931 89.64867 33818 ft 475 kts 299°
2026-05-05 20:53 21.94607 89.58956 33818 ft 475 kts 299°
2026-05-05 20:54 21.98281 89.53043 33818 ft 475 kts 299°
2026-05-05 20:54 22.01955 89.47125 33818 ft 475 kts 299°
2026-05-05 20:55 22.05630 89.41200 33818 ft 475 kts 299°
2026-05-05 20:55 22.09296 89.35278 33815 ft 475 kts 299°
2026-05-05 20:56 22.12961 89.29356 33815 ft 475 kts 299°
2026-05-05 20:56 22.16625 89.23427 33822 ft 475 kts 299°
2026-05-05 20:57 22.20278 89.17510 33812 ft 472 kts 299°
2026-05-05 20:57 22.23912 89.11617 33812 ft 471 kts 299°
2026-05-05 20:58 22.27521 89.05757 33810 ft 471 kts 299°
2026-05-05 20:58 22.31175 88.99876 33809 ft 472 kts 300°
2026-05-05 20:59 22.34991 88.94085 33807 ft 473 kts 301°
2026-05-05 20:59 22.38848 88.88329 33807 ft 473 kts 301°
2026-05-05 21:00 22.42692 88.82561 33810 ft 472 kts 301°
2026-05-05 21:00 22.46516 88.76794 33801 ft 471 kts 301°
2026-05-05 21:01 22.50324 88.71029 33810 ft 472 kts 301°
2026-05-05 21:01 22.54139 88.65246 33818 ft 472 kts 301°
2026-05-05 21:02 22.57924 88.59504 33820 ft 472 kts 301°
2026-05-05 21:02 22.61730 88.53728 33832 ft 472 kts 301°
2026-05-05 21:03 22.65543 88.47934 33828 ft 472 kts 301°
2026-05-05 21:03 22.69261 88.42086 33830 ft 471 kts 298°
2026-05-05 21:04 22.72718 88.36064 33826 ft 470 kts 296°
2026-05-05 21:04 22.76123 88.30006 33820 ft 471 kts 297°
2026-05-05 21:05 22.79551 88.23962 33818 ft 470 kts 297°
2026-05-05 21:05 22.82989 88.17938 33807 ft 470 kts 297°
2026-05-05 21:06 22.86438 88.11905 33805 ft 470 kts 297°
2026-05-05 21:06 22.89882 88.05872 33806 ft 469 kts 297°
2026-05-05 21:07 22.93311 87.99856 33810 ft 468 kts 297°
2026-05-05 21:07 22.96733 87.93842 33811 ft 468 kts 297°
2026-05-05 21:08 23.00128 87.87869 33813 ft 468 kts 297°
2026-05-05 21:08 23.03545 87.81852 33815 ft 468 kts 297°
2026-05-05 21:09 23.06957 87.75831 33816 ft 468 kts 297°
2026-05-05 21:09 23.10366 87.69812 33833 ft 467 kts 297°
2026-05-05 21:10 23.13747 87.63841 33820 ft 462 kts 297°
2026-05-05 21:10 23.17103 87.57902 33824 ft 461 kts 296°
2026-05-05 21:11 23.20461 87.51951 33825 ft 461 kts 296°
2026-05-05 21:11 23.23810 87.46008 33826 ft 461 kts 297°
2026-05-05 21:12 23.27160 87.40057 33828 ft 461 kts 296°
2026-05-05 21:12 23.30487 87.34141 33827 ft 461 kts 296°
2026-05-05 21:13 23.33835 87.28185 33829 ft 461 kts 296°
2026-05-05 21:13 23.37177 87.22231 33834 ft 461 kts 296°
2026-05-05 21:14 23.40514 87.16277 33858 ft 461 kts 296°
2026-05-05 21:14 23.43838 87.10346 33834 ft 456 kts 296°
2026-05-05 21:15 23.47134 87.04452 33842 ft 455 kts 296°
2026-05-05 21:15 23.50428 86.98558 33842 ft 455 kts 296°
2026-05-05 21:16 23.53700 86.92709 33849 ft 455 kts 296°
2026-05-05 21:16 23.57002 86.86798 33848 ft 456 kts 296°
2026-05-05 21:17 23.60301 86.80890 33850 ft 456 kts 296°
2026-05-05 21:17 23.63597 86.74973 33856 ft 457 kts 296°
2026-05-05 21:18 23.66900 86.69035 33855 ft 457 kts 296°
2026-05-05 21:18 23.70195 86.63119 33861 ft 456 kts 296°
2026-05-05 21:19 23.73486 86.57202 33868 ft 454 kts 296°
2026-05-05 21:19 23.76724 86.51371 33867 ft 451 kts 296°
2026-05-05 21:20 23.79970 86.45509 33855 ft 450 kts 296°
2026-05-05 21:20 23.83348 86.39737 33873 ft 452 kts 298°
2026-05-05 21:21 23.86942 86.34096 33873 ft 453 kts 299°
2026-05-05 21:21 23.90562 86.28456 33877 ft 453 kts 299°
2026-05-05 21:22 23.94154 86.22804 33864 ft 452 kts 299°
2026-05-05 21:22 23.97730 86.17138 33867 ft 453 kts 298°
2026-05-05 21:23 24.01302 86.11461 33881 ft 453 kts 298°
2026-05-05 21:23 24.04874 86.05785 33873 ft 453 kts 298°
2026-05-05 21:24 24.08439 86.00111 33867 ft 452 kts 298°
2026-05-05 21:24 24.12006 85.94426 33867 ft 453 kts 298°
2026-05-05 21:25 24.15565 85.88747 33867 ft 453 kts 298°
2026-05-05 21:25 24.19103 85.83097 33873 ft 453 kts 298°
2026-05-05 21:26 24.22665 85.77401 33865 ft 453 kts 298°
2026-05-05 21:26 24.26224 85.71703 33867 ft 453 kts 298°
2026-05-05 21:27 24.29780 85.66006 33867 ft 452 kts 298°
2026-05-05 21:27 24.33332 85.60307 33864 ft 452 kts 298°
2026-05-05 21:28 24.36281 85.55571 33859 ft 452 kts 298°
2026-05-05 21:28 24.39825 85.49870 33860 ft 452 kts 298°
2026-05-05 21:29 24.43365 85.44171 33860 ft 452 kts 298°
2026-05-05 21:29 24.46916 85.38450 33847 ft 454 kts 297°
2026-05-05 21:30 24.50471 85.32713 33847 ft 455 kts 297°
2026-05-05 21:30 24.54030 85.26962 33851 ft 455 kts 297°
2026-05-05 21:31 24.57560 85.21253 33841 ft 454 kts 297°
2026-05-05 21:31 24.61107 85.15510 33833 ft 454 kts 297°
2026-05-05 21:32 24.64656 85.09755 33830 ft 454 kts 297°
2026-05-05 21:32 24.68201 85.04001 33834 ft 454 kts 297°
2026-05-05 21:33 24.71743 84.98246 33829 ft 455 kts 297°
2026-05-05 21:33 24.74812 84.92249 33829 ft 446 kts 288°
2026-05-05 21:34 24.77153 84.85931 33829 ft 445 kts 286°
2026-05-05 21:34 24.79364 84.79568 33826 ft 445 kts 285°
2026-05-05 21:35 24.81560 84.73206 33822 ft 445 kts 285°
2026-05-05 21:35 24.83759 84.66865 33818 ft 445 kts 285°
2026-05-05 21:36 24.85974 84.60499 33807 ft 445 kts 285°
2026-05-05 21:36 24.88188 84.54133 33804 ft 445 kts 285°
2026-05-05 21:37 24.90401 84.47756 33801 ft 445 kts 285°
2026-05-05 21:37 24.92606 84.41389 33803 ft 445 kts 286°
2026-05-05 21:38 24.94800 84.35049 33793 ft 446 kts 286°
2026-05-05 21:38 24.97002 84.28672 33800 ft 446 kts 286°
2026-05-05 21:39 24.99210 84.22274 33796 ft 446 kts 286°
2026-05-05 21:39 25.01416 84.15869 33796 ft 446 kts 286°
2026-05-05 21:40 25.03616 84.09469 33796 ft 446 kts 286°
2026-05-05 21:40 25.05812 84.03067 33796 ft 446 kts 286°
2026-05-05 21:41 25.08010 83.96654 33795 ft 446 kts 286°
2026-05-05 21:41 25.10187 83.90290 33807 ft 446 kts 286°
2026-05-05 21:42 25.12376 83.83878 33797 ft 446 kts 286°
2026-05-05 21:42 25.14561 83.77468 33795 ft 446 kts 286°
2026-05-05 21:43 25.16747 83.71046 33793 ft 446 kts 286°
2026-05-05 21:43 25.18931 83.64623 33793 ft 446 kts 286°
2026-05-05 21:44 25.21110 83.58201 33794 ft 446 kts 286°
2026-05-05 21:44 25.23270 83.51824 33796 ft 446 kts 286°
2026-05-05 21:45 25.25442 83.45403 33793 ft 446 kts 286°
2026-05-05 21:45 25.27611 83.38980 33793 ft 446 kts 286°
2026-05-05 21:46 25.29776 83.32562 33793 ft 446 kts 286°
2026-05-05 21:46 25.31936 83.26141 33793 ft 446 kts 285°
2026-05-05 21:47 25.34096 83.19713 33793 ft 446 kts 286°
2026-05-05 21:47 25.36258 83.13270 33794 ft 447 kts 285°
2026-05-05 21:48 25.38414 83.06828 33793 ft 448 kts 285°
2026-05-05 21:48 25.40561 83.00405 33796 ft 448 kts 285°
2026-05-05 21:49 25.42720 82.93938 33793 ft 448 kts 285°
2026-05-05 21:49 25.44982 82.87516 33958 ft 449 kts 290°
2026-05-05 21:50 25.46510 82.84500 34262 ft 451 kts 297°
2026-05-05 21:50 25.48289 82.81639 34581 ft 450 kts 299°
2026-05-05 21:50 25.50129 82.78835 34820 ft 449 kts 300°
2026-05-05 21:50 25.51998 82.76064 35042 ft 449 kts 301°
2026-05-05 21:51 25.53879 82.73307 35249 ft 448 kts 301°
2026-05-05 21:51 25.55757 82.70559 35446 ft 447 kts 301°
2026-05-05 21:51 25.57631 82.67810 35641 ft 446 kts 301°
2026-05-05 21:51 25.59494 82.65067 35775 ft 447 kts 301°
2026-05-05 21:52 25.65100 82.56755 35802 ft 452 kts 301°
2026-05-05 21:53 25.68862 82.51170 35802 ft 452 kts 301°
2026-05-05 21:53 25.72620 82.45583 35804 ft 452 kts 301°
2026-05-05 21:54 25.76375 82.39992 35817 ft 452 kts 301°
2026-05-05 21:54 25.80133 82.34389 35804 ft 453 kts 301°
2026-05-05 21:55 25.83895 82.28775 35807 ft 453 kts 301°
2026-05-05 21:55 25.87660 82.23152 35807 ft 453 kts 301°
2026-05-05 21:56 25.91419 82.17530 35807 ft 453 kts 301°
2026-05-05 21:56 25.95152 82.11940 35812 ft 453 kts 301°
2026-05-05 21:57 25.98908 82.06308 35810 ft 453 kts 301°
2026-05-05 21:57 26.02658 82.00677 35809 ft 453 kts 301°
2026-05-05 21:58 26.06410 81.95036 35810 ft 454 kts 301°
2026-05-05 21:58 26.10162 81.89387 35810 ft 454 kts 301°
2026-05-05 21:59 26.13920 81.83724 35810 ft 454 kts 301°
2026-05-05 21:59 26.17673 81.78063 35809 ft 454 kts 301°
2026-05-05 22:00 26.21425 81.72395 35811 ft 454 kts 301°
2026-05-05 22:00 26.25171 81.66730 35813 ft 454 kts 301°
2026-05-05 22:01 26.28887 81.61102 35814 ft 453 kts 301°
2026-05-05 22:01 26.32626 81.55433 35825 ft 453 kts 301°
2026-05-05 22:02 26.36353 81.49774 35814 ft 453 kts 301°
2026-05-05 22:02 26.40081 81.44107 35813 ft 453 kts 301°
2026-05-05 22:03 26.43810 81.38436 35796 ft 453 kts 301°
2026-05-05 22:03 26.47527 81.32772 35816 ft 453 kts 301°
2026-05-05 22:04 26.51250 81.27093 35805 ft 453 kts 301°
2026-05-05 22:04 26.54946 81.21450 35817 ft 451 kts 301°
2026-05-05 22:05 26.58644 81.15794 35822 ft 451 kts 301°
2026-05-05 22:05 26.62347 81.10121 35819 ft 451 kts 301°
2026-05-05 22:06 26.66038 81.04456 35814 ft 452 kts 301°
2026-05-05 22:06 26.69744 80.98768 35813 ft 452 kts 301°
2026-05-05 22:07 26.73447 80.93077 35802 ft 452 kts 301°
2026-05-05 22:07 26.77196 80.87488 35798 ft 453 kts 304°
2026-05-05 22:08 26.81289 80.82095 35802 ft 454 kts 306°
2026-05-05 22:08 26.85449 80.76771 35808 ft 454 kts 306°
2026-05-05 22:09 26.89584 80.71419 35814 ft 455 kts 305°
2026-05-05 22:09 26.93706 80.66023 35813 ft 456 kts 305°
2026-05-05 22:10 26.97822 80.60614 35820 ft 456 kts 305°
2026-05-05 22:10 27.01936 80.55202 35822 ft 456 kts 305°
2026-05-05 22:11 27.06047 80.49791 35820 ft 455 kts 305°
2026-05-05 22:11 27.10146 80.44388 35823 ft 454 kts 305°
2026-05-05 22:12 27.14248 80.38974 35820 ft 454 kts 305°
2026-05-05 22:12 27.18323 80.33587 35814 ft 456 kts 305°
2026-05-05 22:13 27.22439 80.28142 35828 ft 456 kts 305°
2026-05-05 22:13 27.26546 80.22706 35816 ft 456 kts 305°
2026-05-05 22:14 27.30649 80.17262 35814 ft 456 kts 305°
2026-05-05 22:14 27.34749 80.11816 35835 ft 455 kts 305°
2026-05-05 22:15 27.38837 80.06383 35819 ft 455 kts 305°
2026-05-05 22:15 27.42923 80.00944 35833 ft 455 kts 305°
2026-05-05 22:16 27.47005 79.95502 35823 ft 455 kts 305°
2026-05-05 22:16 27.51067 79.90080 35824 ft 455 kts 305°
2026-05-05 22:17 27.55153 79.84621 35823 ft 455 kts 305°
2026-05-05 22:17 27.58538 79.80093 35823 ft 455 kts 305°
2026-05-05 22:18 27.62612 79.74635 35822 ft 454 kts 305°
2026-05-05 22:18 27.66677 79.69185 35825 ft 454 kts 305°
2026-05-05 22:19 27.70113 79.63299 35840 ft 446 kts 292°
2026-05-05 22:19 27.72647 79.56893 35831 ft 446 kts 290°
2026-05-05 22:20 27.74998 79.50443 35827 ft 447 kts 289°
2026-05-05 22:20 27.77356 79.43910 35829 ft 447 kts 289°
2026-05-05 22:21 27.79698 79.37469 35827 ft 446 kts 290°
2026-05-05 22:21 27.82064 79.30992 35828 ft 446 kts 290°
2026-05-05 22:22 27.84434 79.24504 35829 ft 446 kts 290°
2026-05-05 22:22 27.86795 79.18024 35830 ft 446 kts 290°
2026-05-05 22:23 27.89154 79.11541 35831 ft 446 kts 290°
2026-05-05 22:23 27.91516 79.05036 35826 ft 446 kts 290°
2026-05-05 22:24 27.93864 78.98558 35835 ft 445 kts 290°
2026-05-05 22:24 27.96212 78.92070 35835 ft 445 kts 290°
2026-05-05 22:25 27.98556 78.85583 35835 ft 445 kts 290°
2026-05-05 22:25 28.00892 78.79101 35835 ft 445 kts 290°
2026-05-05 22:26 28.03212 78.72651 35838 ft 445 kts 290°
2026-05-05 22:26 28.05546 78.66157 35837 ft 445 kts 290°
2026-05-05 22:27 28.07870 78.59679 35839 ft 443 kts 290°
2026-05-05 22:27 28.10186 78.53212 35841 ft 443 kts 290°
2026-05-05 22:28 28.12502 78.46733 35839 ft 443 kts 290°
2026-05-05 22:28 28.14813 78.40258 35840 ft 443 kts 290°
2026-05-05 22:29 28.17119 78.33780 35863 ft 443 kts 290°
2026-05-05 22:29 28.19423 78.27299 35840 ft 444 kts 290°
2026-05-05 22:30 28.21731 78.20792 35840 ft 444 kts 290°
2026-05-05 22:30 28.24020 78.14335 35843 ft 444 kts 290°
2026-05-05 22:31 28.26321 78.07834 35845 ft 444 kts 290°
2026-05-05 22:31 28.28620 78.01324 35845 ft 444 kts 290°
2026-05-05 22:32 28.30915 77.94816 35839 ft 444 kts 290°
2026-05-05 22:32 28.33201 77.88312 35846 ft 444 kts 290°
2026-05-05 22:33 28.35487 77.81801 35846 ft 443 kts 290°
2026-05-05 22:33 28.37769 77.75293 35853 ft 444 kts 290°
2026-05-05 22:34 28.39985 77.68752 35874 ft 443 kts 288°
2026-05-05 22:34 28.41892 77.62135 35854 ft 443 kts 286°
2026-05-05 22:35 28.43727 77.55451 35854 ft 443 kts 286°
2026-05-05 22:35 28.45585 77.48765 35857 ft 443 kts 286°
2026-05-05 22:36 28.47460 77.42095 35856 ft 443 kts 287°
2026-05-05 22:36 28.49341 77.35422 35857 ft 443 kts 287°
2026-05-05 22:37 28.51218 77.28746 35856 ft 443 kts 286°
2026-05-05 22:37 28.53088 77.22071 35847 ft 443 kts 287°
2026-05-05 22:38 28.54956 77.15393 35855 ft 443 kts 287°
2026-05-05 22:38 28.56998 77.08829 35855 ft 444 kts 293°
2026-05-05 22:39 28.59751 77.02488 35859 ft 444 kts 295°
2026-05-05 22:39 28.62584 76.96289 35867 ft 445 kts 295°
2026-05-05 22:40 28.65457 76.90043 35857 ft 445 kts 295°
2026-05-05 22:40 28.68318 76.83788 35856 ft 445 kts 295°
2026-05-05 22:41 28.71168 76.77525 35862 ft 445 kts 295°
2026-05-05 22:41 28.74014 76.71260 35862 ft 445 kts 295°
2026-05-05 22:42 28.76859 76.64993 35862 ft 445 kts 295°
2026-05-05 22:42 28.79695 76.58733 35856 ft 445 kts 295°
2026-05-05 22:43 28.82532 76.52455 35856 ft 445 kts 295°
2026-05-05 22:43 28.85365 76.46171 35896 ft 445 kts 296°
2026-05-05 22:44 28.88194 76.39896 35858 ft 444 kts 296°
2026-05-05 22:44 28.90994 76.33682 35856 ft 444 kts 296°
2026-05-05 22:45 28.93819 76.27395 35855 ft 444 kts 295°
2026-05-05 22:45 28.96634 76.21120 35855 ft 444 kts 295°
2026-05-05 22:46 28.99450 76.14836 35854 ft 444 kts 295°
2026-05-05 22:46 29.02262 76.08550 35853 ft 444 kts 296°
2026-05-05 22:47 29.05069 76.02262 35854 ft 444 kts 295°
2026-05-05 22:47 29.07868 75.95976 35853 ft 444 kts 295°
2026-05-05 22:48 29.10663 75.89690 35858 ft 443 kts 296°
2026-05-05 22:48 29.13458 75.83405 35853 ft 443 kts 296°
2026-05-05 22:49 29.16230 75.77160 35837 ft 443 kts 296°
2026-05-05 22:49 29.19017 75.70872 35851 ft 443 kts 296°
2026-05-05 22:50 29.21798 75.64585 35852 ft 443 kts 296°
2026-05-05 22:50 29.24581 75.58284 35851 ft 443 kts 296°
2026-05-05 22:51 29.27356 75.51992 35851 ft 443 kts 296°
2026-05-05 22:51 29.30169 75.45719 35845 ft 443 kts 296°
2026-05-05 22:52 29.33174 75.39566 35844 ft 443 kts 303°
2026-05-05 22:52 29.36735 75.33853 35845 ft 443 kts 304°
2026-05-05 22:53 29.40404 75.28178 35846 ft 443 kts 304°
2026-05-05 22:53 29.44090 75.22505 35845 ft 443 kts 304°
2026-05-05 22:54 29.47764 75.16820 35843 ft 443 kts 304°
2026-05-05 22:54 29.51427 75.11134 35842 ft 443 kts 304°
2026-05-05 22:55 29.55088 75.05442 35863 ft 443 kts 305°
2026-05-05 22:55 29.58712 74.99794 35845 ft 441 kts 305°
2026-05-05 22:56 29.62348 74.94123 35842 ft 440 kts 305°
2026-05-05 22:56 29.65980 74.88453 35844 ft 440 kts 305°
2026-05-05 22:57 29.69619 74.82763 35844 ft 440 kts 305°
2026-05-05 22:57 29.73244 74.77085 35839 ft 440 kts 304°
2026-05-05 22:58 29.76873 74.71392 35839 ft 440 kts 304°
2026-05-05 22:58 29.80496 74.65705 35839 ft 440 kts 305°
2026-05-05 22:59 29.84086 74.60056 35840 ft 440 kts 305°
2026-05-05 22:59 29.87698 74.54371 35840 ft 440 kts 305°
2026-05-05 23:00 29.93111 74.45837 35842 ft 439 kts 305°
2026-05-05 23:00 29.96717 74.40138 35843 ft 439 kts 305°
2026-05-05 23:01 30.00318 74.34439 35846 ft 439 kts 305°
2026-05-05 23:01 30.03911 74.28742 35843 ft 439 kts 305°
2026-05-05 23:02 30.07503 74.23042 35840 ft 439 kts 305°
2026-05-05 23:02 30.11087 74.17343 35837 ft 439 kts 305°
2026-05-05 23:03 30.14671 74.11642 35837 ft 438 kts 305°
2026-05-05 23:03 30.18256 74.05928 35837 ft 438 kts 305°
2026-05-05 23:04 30.21224 74.01190 35840 ft 438 kts 305°
2026-05-05 23:04 30.25388 73.94542 35854 ft 438 kts 305°
2026-05-05 23:05 30.28962 73.88842 35836 ft 438 kts 305°
2026-05-05 23:05 30.32539 73.83133 35838 ft 438 kts 305°
2026-05-05 23:06 30.35501 73.78398 35837 ft 438 kts 305°
2026-05-05 23:06 30.39075 73.72677 35838 ft 438 kts 305°
2026-05-05 23:07 30.42644 73.66954 35856 ft 438 kts 305°
2026-05-05 23:07 30.46202 73.61238 35843 ft 437 kts 305°
2026-05-05 23:08 30.49747 73.55536 35847 ft 436 kts 305°
2026-05-05 23:08 30.53297 73.49820 35847 ft 436 kts 305°
2026-05-05 23:09 30.56844 73.44101 35850 ft 436 kts 305°
2026-05-05 23:09 30.60382 73.38386 35848 ft 436 kts 305°
2026-05-05 23:10 30.63923 73.32660 35852 ft 436 kts 305°
2026-05-05 23:10 30.67455 73.26939 35854 ft 435 kts 305°
2026-05-05 23:11 30.70954 73.21264 35856 ft 435 kts 305°
2026-05-05 23:11 30.74472 73.15552 35859 ft 435 kts 305°
2026-05-05 23:12 30.77997 73.09824 35856 ft 435 kts 305°
2026-05-05 23:12 30.81522 73.04087 35857 ft 435 kts 305°
2026-05-05 23:13 30.85039 72.98356 35856 ft 435 kts 305°
2026-05-05 23:13 30.88553 72.92617 35858 ft 435 kts 304°
2026-05-05 23:14 30.92054 72.86892 35883 ft 434 kts 305°
2026-05-05 23:14 30.95539 72.81186 35859 ft 434 kts 305°
2026-05-05 23:15 30.99044 72.75439 35856 ft 434 kts 305°
2026-05-05 23:15 31.02542 72.69694 35859 ft 434 kts 305°
2026-05-05 23:16 31.06018 72.63977 35857 ft 434 kts 305°
2026-05-05 23:16 31.09514 72.58221 35859 ft 434 kts 304°
2026-05-05 23:17 31.12996 72.52479 35857 ft 433 kts 304°
2026-05-05 23:17 31.16476 72.46729 35854 ft 434 kts 304°
2026-05-05 23:18 31.19962 72.40968 35854 ft 434 kts 304°
2026-05-05 23:18 31.23445 72.35197 35851 ft 434 kts 304°
2026-05-05 23:19 31.26821 72.29342 35852 ft 434 kts 300°
2026-05-05 23:19 31.29761 72.23233 35841 ft 434 kts 299°
2026-05-05 23:20 31.32637 72.17039 35848 ft 433 kts 298°
2026-05-05 23:20 31.35515 72.10797 35848 ft 433 kts 298°
2026-05-05 23:21 31.38365 72.04626 35846 ft 434 kts 298°
2026-05-05 23:21 31.41236 71.98409 35845 ft 434 kts 298°
2026-05-05 23:22 31.44108 71.92188 35843 ft 434 kts 298°
2026-05-05 23:22 31.46973 71.85974 35849 ft 433 kts 298°
2026-05-05 23:23 31.49830 71.79761 35846 ft 433 kts 298°
2026-05-05 23:23 31.52682 71.73550 35848 ft 433 kts 298°
2026-05-05 23:24 31.55536 71.67321 35840 ft 433 kts 298°
2026-05-05 23:24 31.58393 71.61081 35837 ft 435 kts 298°
2026-05-05 23:25 31.61252 71.54821 35818 ft 435 kts 298°
2026-05-05 23:25 31.64087 71.48595 35842 ft 434 kts 298°
2026-05-05 23:26 31.66933 71.42342 35828 ft 434 kts 298°
2026-05-05 23:26 31.69778 71.36076 35839 ft 434 kts 298°
2026-05-05 23:27 31.72614 71.29815 35843 ft 434 kts 298°
2026-05-05 23:27 31.75433 71.23582 35839 ft 434 kts 298°
2026-05-05 23:28 31.78287 71.17263 35840 ft 435 kts 298°
2026-05-05 23:28 31.81101 71.11025 35837 ft 435 kts 298°
2026-05-05 23:29 31.83940 71.04721 35838 ft 435 kts 298°
2026-05-05 23:29 31.86772 70.98423 35837 ft 435 kts 298°
2026-05-05 23:30 31.89599 70.92123 35840 ft 435 kts 298°
2026-05-05 23:30 31.92837 70.86118 35842 ft 435 kts 306°
2026-05-05 23:31 31.96480 70.80436 35837 ft 435 kts 307°
2026-05-05 23:31 32.00182 70.74810 35837 ft 435 kts 307°
2026-05-05 23:32 32.03895 70.69169 35837 ft 435 kts 307°
2026-05-05 23:32 32.07579 70.63546 35837 ft 435 kts 307°
2026-05-05 23:33 32.11266 70.57894 35837 ft 435 kts 307°
2026-05-05 23:33 32.14951 70.52235 35828 ft 435 kts 307°
2026-05-05 23:34 32.18630 70.46577 35845 ft 435 kts 307°
2026-05-05 23:34 32.22313 70.40909 35845 ft 435 kts 307°
2026-05-05 23:35 32.25993 70.35233 35845 ft 435 kts 307°
2026-05-05 23:35 32.29671 70.29552 35856 ft 435 kts 307°
2026-05-05 23:36 32.33351 70.23868 35870 ft 435 kts 307°
2026-05-05 23:36 32.37029 70.18183 35882 ft 435 kts 307°
2026-05-05 23:37 32.40765 70.12539 35907 ft 435 kts 308°
2026-05-05 23:37 32.44505 70.06962 35893 ft 435 kts 307°
2026-05-05 23:38 32.48259 70.01350 35920 ft 435 kts 308°
2026-05-05 23:38 32.52015 69.95713 35933 ft 435 kts 307°
2026-05-05 23:39 32.55757 69.90078 35933 ft 434 kts 307°
2026-05-05 23:39 32.59500 69.84429 35953 ft 437 kts 307°
2026-05-05 23:40 32.63263 69.78754 35970 ft 437 kts 307°
2026-05-05 23:40 32.67020 69.73069 35965 ft 438 kts 307°
2026-05-05 23:41 32.70777 69.67374 35949 ft 437 kts 307°
2026-05-05 23:41 32.74533 69.61689 35974 ft 437 kts 307°
2026-05-05 23:42 32.78252 69.56044 35969 ft 438 kts 307°
2026-05-05 23:42 32.82015 69.50328 35985 ft 439 kts 308°
2026-05-05 23:43 32.85762 69.44615 35981 ft 438 kts 307°
2026-05-05 23:43 32.89512 69.38878 35992 ft 439 kts 307°
2026-05-05 23:44 32.93259 69.33134 35995 ft 439 kts 307°
2026-05-05 23:44 32.97006 69.27380 36013 ft 439 kts 307°
2026-05-05 23:45 33.00754 69.21614 36004 ft 440 kts 307°
2026-05-05 23:45 33.04472 69.15883 36008 ft 440 kts 307°
2026-05-05 23:46 33.08217 69.10098 36017 ft 440 kts 307°
2026-05-05 23:46 33.11961 69.04309 36013 ft 440 kts 307°
2026-05-05 23:47 33.15705 68.98514 36017 ft 441 kts 307°
2026-05-05 23:47 33.19446 68.92707 36011 ft 441 kts 307°
2026-05-05 23:48 33.23183 68.86901 36010 ft 441 kts 307°
2026-05-05 23:48 33.26916 68.81096 36011 ft 440 kts 307°
2026-05-05 23:49 33.30784 68.75430 36011 ft 440 kts 309°
2026-05-05 23:49 33.34787 68.69901 36002 ft 440 kts 310°
2026-05-05 23:50 33.38775 68.64397 36003 ft 440 kts 310°
2026-05-05 23:50 33.42768 68.58840 36021 ft 440 kts 310°
2026-05-05 23:51 33.46746 68.53272 36028 ft 440 kts 310°
2026-05-05 23:51 33.50723 68.47693 36018 ft 440 kts 309°
2026-05-05 23:52 33.54685 68.42117 36038 ft 439 kts 309°
2026-05-05 23:52 33.58590 68.36466 36043 ft 441 kts 309°
2026-05-05 23:53 33.62472 68.30753 36062 ft 442 kts 308°
2026-05-05 23:53 33.65711 68.25978 36059 ft 443 kts 308°
2026-05-05 23:54 33.69611 68.20233 36092 ft 443 kts 308°
2026-05-05 23:54 33.73504 68.14505 36096 ft 442 kts 308°
2026-05-05 23:55 33.77373 68.08805 36122 ft 444 kts 308°
2026-05-05 23:55 33.81279 68.03041 36114 ft 446 kts 308°
2026-05-05 23:56 33.85189 67.97259 36118 ft 445 kts 308°
2026-05-05 23:56 33.89096 67.91467 36134 ft 445 kts 308°
2026-05-05 23:57 33.93000 67.85672 36134 ft 445 kts 308°
2026-05-05 23:57 33.96908 67.79862 36141 ft 446 kts 308°
2026-05-05 23:58 34.00777 67.74069 36144 ft 447 kts 308°
2026-05-05 23:58 34.04647 67.68210 36144 ft 447 kts 308°
2026-05-05 23:59 34.08513 67.62340 36164 ft 446 kts 308°
2026-05-05 23:59 34.12368 67.56482 36146 ft 446 kts 308°
2026-05-06 00:00 34.16227 67.50615 36154 ft 446 kts 308°
2026-05-06 00:00 34.20082 67.44746 36172 ft 446 kts 308°
2026-05-06 00:01 34.23935 67.38866 36151 ft 446 kts 308°
2026-05-06 00:01 34.27789 67.32974 36151 ft 446 kts 308°
2026-05-06 00:02 34.31637 67.27084 36161 ft 446 kts 307°
2026-05-06 00:02 34.35477 67.21194 36168 ft 446 kts 307°
2026-05-06 00:03 34.39313 67.15305 36179 ft 445 kts 307°
2026-05-06 00:03 34.43144 67.09418 36187 ft 445 kts 307°
2026-05-06 00:04 34.46978 67.03512 36180 ft 445 kts 307°
2026-05-06 00:04 34.50795 66.97614 36186 ft 445 kts 307°
2026-05-06 00:05 34.56507 66.88773 36192 ft 447 kts 307°
2026-05-06 00:06 34.60339 66.82828 36209 ft 446 kts 307°
2026-05-06 00:06 34.64154 66.76897 36205 ft 445 kts 307°
2026-05-06 00:07 34.67957 66.70974 36207 ft 445 kts 307°
2026-05-06 00:07 34.71764 66.65031 36222 ft 445 kts 307°
2026-05-06 00:08 34.75578 66.59089 36209 ft 446 kts 307°
2026-05-06 00:08 34.79383 66.53138 36202 ft 445 kts 307°
2026-05-06 00:09 34.83186 66.47173 36203 ft 445 kts 306°
2026-05-06 00:09 34.86968 66.41201 36228 ft 446 kts 306°
2026-05-06 00:10 34.90740 66.35264 36189 ft 446 kts 307°
2026-05-06 00:10 34.94543 66.29289 36210 ft 447 kts 307°
2026-05-06 00:11 34.98344 66.23287 36197 ft 448 kts 306°
2026-05-06 00:11 35.02125 66.17244 36193 ft 447 kts 306°
2026-05-06 00:12 35.05889 66.11202 36204 ft 447 kts 306°
2026-05-06 00:12 35.09662 66.05144 36204 ft 448 kts 306°
2026-05-06 00:13 35.13405 65.99131 36199 ft 447 kts 306°
2026-05-06 00:13 35.17167 65.93075 36173 ft 447 kts 306°
2026-05-06 00:14 35.20921 65.87020 36183 ft 447 kts 306°
2026-05-06 00:14 35.24682 65.80933 36182 ft 448 kts 306°
2026-05-06 00:15 35.28447 65.74852 36167 ft 448 kts 306°
2026-05-06 00:15 35.32209 65.68766 36166 ft 448 kts 306°
2026-05-06 00:16 35.35972 65.62661 36155 ft 450 kts 306°
2026-05-06 00:16 35.39738 65.56535 36147 ft 450 kts 306°
2026-05-06 00:17 35.43504 65.50397 36133 ft 450 kts 306°
2026-05-06 00:17 35.47264 65.44246 36126 ft 451 kts 306°
2026-05-06 00:18 35.51028 65.38093 36113 ft 450 kts 306°
2026-05-06 00:18 35.54784 65.31947 36108 ft 450 kts 306°
2026-05-06 00:19 35.58549 65.25784 36096 ft 452 kts 305°
2026-05-06 00:19 35.62316 65.19598 36069 ft 452 kts 305°
2026-05-06 00:20 35.66055 65.13435 36069 ft 453 kts 305°
2026-05-06 00:20 35.69812 65.07233 36042 ft 452 kts 305°
2026-05-06 00:21 35.73576 65.01013 36037 ft 452 kts 305°
2026-05-06 00:21 35.77334 64.94792 36025 ft 454 kts 305°
2026-05-06 00:22 35.81101 64.88543 36026 ft 455 kts 305°
2026-05-06 00:22 35.84865 64.82287 36001 ft 455 kts 305°
2026-05-06 00:23 35.88637 64.76011 36001 ft 455 kts 305°
2026-05-06 00:23 35.92402 64.69731 35978 ft 455 kts 305°
2026-05-06 00:24 35.96164 64.63448 35982 ft 455 kts 305°
2026-05-06 00:24 35.99929 64.57149 35985 ft 455 kts 305°
2026-05-06 00:25 36.03659 64.50893 35992 ft 455 kts 304°
2026-05-06 00:25 36.07433 64.44553 35992 ft 455 kts 305°
2026-05-06 00:26 36.11160 64.38281 35970 ft 455 kts 304°
2026-05-06 00:26 36.14912 64.31959 35997 ft 455 kts 304°
2026-05-06 00:26 36.16784 64.28814 36254 ft 453 kts 305°
2026-05-06 00:27 36.18686 64.25712 36688 ft 448 kts 306°
2026-05-06 00:27 36.20587 64.22675 37101 ft 444 kts 306°
2026-05-06 00:27 36.22475 64.19679 37487 ft 440 kts 306°
2026-05-06 00:27 36.24358 64.16695 37726 ft 439 kts 306°
2026-05-06 00:28 36.26231 64.13720 37932 ft 438 kts 306°
2026-05-06 00:28 36.29979 64.07737 37967 ft 443 kts 306°
2026-05-06 00:29 36.33746 64.01705 37960 ft 442 kts 305°
2026-05-06 00:29 36.37507 63.95662 37962 ft 442 kts 305°
2026-05-06 00:30 36.41272 63.89602 37963 ft 443 kts 305°
2026-05-06 00:30 36.45033 63.83543 37963 ft 443 kts 305°
2026-05-06 00:31 36.48790 63.77479 37962 ft 443 kts 305°
2026-05-06 00:31 36.52539 63.71416 37957 ft 443 kts 305°
2026-05-06 00:32 36.56290 63.65332 37957 ft 443 kts 305°
2026-05-06 00:32 36.60022 63.59274 37957 ft 444 kts 305°
2026-05-06 00:33 36.63775 63.53172 37955 ft 444 kts 305°
2026-05-06 00:33 36.67524 63.47066 37947 ft 444 kts 305°
2026-05-06 00:34 36.71268 63.40957 37948 ft 444 kts 305°
2026-05-06 00:34 36.75016 63.34832 37939 ft 444 kts 304°
2026-05-06 00:35 36.78768 63.28686 37938 ft 445 kts 304°
2026-05-06 00:35 36.82512 63.22541 37928 ft 445 kts 304°
2026-05-06 00:36 36.86250 63.16391 37928 ft 445 kts 304°
2026-05-06 00:36 36.89995 63.10227 37915 ft 446 kts 304°
2026-05-06 00:37 36.93739 63.04051 37912 ft 446 kts 304°
2026-05-06 00:37 36.97481 62.97867 37908 ft 446 kts 304°
2026-05-06 00:38 37.01227 62.91661 37922 ft 446 kts 304°
2026-05-06 00:38 37.04340 62.86497 37897 ft 447 kts 304°
2026-05-06 00:39 37.08685 62.79274 37896 ft 447 kts 304°
2026-05-06 00:39 37.11814 62.74062 37892 ft 447 kts 304°
2026-05-06 00:40 37.15555 62.67825 37892 ft 447 kts 304°
2026-05-06 00:40 37.19293 62.61580 37887 ft 447 kts 304°
2026-05-06 00:41 37.23019 62.55342 37883 ft 447 kts 304°
2026-05-06 00:41 37.26757 62.49076 37880 ft 448 kts 304°
2026-05-06 00:42 37.30456 62.42860 37882 ft 448 kts 304°
2026-05-06 00:42 37.34182 62.36591 37879 ft 447 kts 303°
2026-05-06 00:43 37.37901 62.30315 37879 ft 447 kts 303°
2026-05-06 00:43 37.41618 62.24032 37876 ft 447 kts 303°
2026-05-06 00:44 37.45331 62.17748 37870 ft 448 kts 303°
2026-05-06 00:44 37.49044 62.11449 37865 ft 447 kts 303°
2026-05-06 00:45 37.52721 62.05197 37860 ft 447 kts 303°
2026-05-06 00:45 37.56425 61.98896 37855 ft 447 kts 303°
2026-05-06 00:46 37.60123 61.92589 37862 ft 447 kts 303°
2026-05-06 00:46 37.63386 61.85960 37867 ft 444 kts 295°
2026-05-06 00:47 37.66224 61.79042 37860 ft 444 kts 294°
2026-05-06 00:47 37.68977 61.72101 37863 ft 444 kts 294°
2026-05-06 00:48 37.71742 61.65119 37859 ft 444 kts 294°
2026-05-06 00:48 37.74507 61.58152 37866 ft 444 kts 294°
2026-05-06 00:49 37.77280 61.51165 37856 ft 444 kts 294°
2026-05-06 00:49 37.80038 61.44198 37854 ft 444 kts 294°
2026-05-06 00:50 37.82802 61.37204 37854 ft 444 kts 294°
2026-05-06 00:50 37.85560 61.30210 37849 ft 444 kts 294°
2026-05-06 00:51 37.88310 61.23213 37849 ft 444 kts 294°
2026-05-06 00:51 37.91054 61.16221 37845 ft 444 kts 294°
2026-05-06 00:52 37.93779 61.09265 37842 ft 444 kts 294°
2026-05-06 00:52 37.96523 61.02243 37848 ft 444 kts 293°
2026-05-06 00:53 37.99250 60.95243 37846 ft 443 kts 293°
2026-05-06 00:53 38.01983 60.88210 37844 ft 444 kts 293°
2026-05-06 00:54 38.04713 60.81172 37840 ft 444 kts 293°
2026-05-06 00:54 38.07435 60.74141 37834 ft 444 kts 293°
2026-05-06 00:55 38.10157 60.67096 37837 ft 444 kts 293°
2026-05-06 00:55 38.12852 60.60099 37837 ft 444 kts 293°
2026-05-06 00:56 38.15567 60.53037 37837 ft 445 kts 293°
2026-05-06 00:56 38.18274 60.45982 37830 ft 444 kts 292°
2026-05-06 00:57 38.20981 60.38912 37835 ft 444 kts 292°
2026-05-06 00:57 38.23678 60.31844 37846 ft 444 kts 292°
2026-05-06 00:58 38.26371 60.24772 37837 ft 444 kts 292°
2026-05-06 00:58 38.29062 60.17692 37838 ft 444 kts 292°
2026-05-06 00:59 38.31746 60.10622 37830 ft 442 kts 292°
2026-05-06 00:59 38.34415 60.03562 37831 ft 442 kts 292°
2026-05-06 01:00 38.37076 59.96511 37836 ft 441 kts 292°
2026-05-06 01:00 38.39731 59.89463 37844 ft 441 kts 292°
2026-05-06 01:01 38.42367 59.82445 37846 ft 441 kts 292°
2026-05-06 01:01 38.45011 59.75388 37844 ft 441 kts 291°
2026-05-06 01:02 38.47655 59.68315 37856 ft 441 kts 291°
2026-05-06 01:02 38.50294 59.61240 37849 ft 440 kts 291°
2026-05-06 01:03 38.52923 59.54175 37848 ft 440 kts 291°
2026-05-06 01:03 38.55547 59.47105 37844 ft 441 kts 291°
2026-05-06 01:04 38.58168 59.40029 37873 ft 441 kts 291°
2026-05-06 01:04 38.60631 59.33507 37848 ft 440 kts 292°
2026-05-06 01:05 38.63393 59.26573 37845 ft 441 kts 293°
2026-05-06 01:05 38.66202 59.19585 37842 ft 441 kts 293°
2026-05-06 01:06 38.68996 59.12580 37843 ft 441 kts 293°
2026-05-06 01:06 38.71770 59.05584 37843 ft 440 kts 292°
2026-05-06 01:07 38.74539 58.98578 37842 ft 440 kts 292°
2026-05-06 01:07 38.77303 58.91562 37843 ft 441 kts 292°
2026-05-06 01:08 38.80050 58.84576 37840 ft 441 kts 292°
2026-05-06 01:08 38.82803 58.77563 37840 ft 441 kts 292°
2026-05-06 01:09 38.85555 58.70538 37833 ft 441 kts 292°
2026-05-06 01:09 38.88262 58.63482 37833 ft 439 kts 289°
2026-05-06 01:10 38.90422 58.56172 37839 ft 437 kts 286°
2026-05-06 01:10 38.92446 58.48801 37850 ft 437 kts 285°
2026-05-06 01:11 38.94423 58.41487 37844 ft 436 kts 285°
2026-05-06 01:11 38.96427 58.34077 37836 ft 436 kts 285°
2026-05-06 01:12 38.98410 58.26752 37840 ft 436 kts 285°
2026-05-06 01:12 39.00400 58.19382 37837 ft 436 kts 285°
2026-05-06 01:13 39.02384 58.12015 37842 ft 436 kts 285°
2026-05-06 01:13 39.04364 58.04638 37848 ft 436 kts 285°
2026-05-06 01:14 39.07323 57.93581 37835 ft 436 kts 285°
2026-05-06 01:14 39.09293 57.86196 37832 ft 436 kts 284°
2026-05-06 01:15 39.11259 57.78799 37843 ft 436 kts 284°
2026-05-06 01:15 39.13214 57.71418 37843 ft 435 kts 284°
2026-05-06 01:16 39.15152 57.64081 37833 ft 435 kts 284°
2026-05-06 01:16 39.17100 57.56687 37841 ft 436 kts 284°
2026-05-06 01:17 39.19049 57.49268 37864 ft 436 kts 284°
2026-05-06 01:17 39.20990 57.41860 37837 ft 436 kts 284°
2026-05-06 01:18 39.22925 57.34450 37845 ft 436 kts 283°
2026-05-06 01:18 39.24860 57.27021 37845 ft 436 kts 283°
2026-05-06 01:19 39.26786 57.19595 37846 ft 436 kts 283°
2026-05-06 01:19 39.28697 57.12211 37845 ft 436 kts 283°
2026-05-06 01:20 39.30616 57.04790 37853 ft 436 kts 283°
2026-05-06 01:20 39.32528 56.97355 37849 ft 436 kts 283°
2026-05-06 01:21 39.34437 56.89904 37855 ft 436 kts 283°
2026-05-06 01:21 39.36342 56.82456 37873 ft 436 kts 282°
2026-05-06 01:22 39.38160 56.74968 37853 ft 436 kts 281°
2026-05-06 01:22 39.39867 56.67499 37858 ft 436 kts 281°
2026-05-06 01:23 39.41582 56.59938 37859 ft 436 kts 281°
2026-05-06 01:23 39.43289 56.52462 37859 ft 436 kts 281°
2026-05-06 01:24 39.45006 56.44952 37860 ft 435 kts 281°
2026-05-06 01:24 39.46719 56.37433 37864 ft 435 kts 281°
2026-05-06 01:25 39.48428 56.29902 37875 ft 435 kts 280°
2026-05-06 01:25 39.50128 56.22388 37864 ft 435 kts 280°
2026-05-06 01:26 39.51822 56.14874 37867 ft 435 kts 280°
2026-05-06 01:26 39.53508 56.07362 37871 ft 434 kts 280°
2026-05-06 01:27 39.55190 55.99842 37867 ft 434 kts 280°
2026-05-06 01:27 39.56858 55.92373 37872 ft 434 kts 280°
2026-05-06 01:28 39.58539 55.84852 37869 ft 434 kts 280°
2026-05-06 01:28 39.60226 55.77328 37883 ft 434 kts 279°
2026-05-06 01:29 39.61909 55.69801 37873 ft 434 kts 279°
2026-05-06 01:29 39.63582 55.62283 37872 ft 434 kts 279°
2026-05-06 01:30 39.65251 55.54757 37876 ft 433 kts 279°
2026-05-06 01:30 39.66913 55.47240 37875 ft 433 kts 279°
2026-05-06 01:31 39.68562 55.39757 37879 ft 433 kts 279°
2026-05-06 01:31 39.70212 55.32227 37877 ft 433 kts 279°
2026-05-06 01:32 39.71855 55.24690 37882 ft 433 kts 279°
2026-05-06 01:32 39.73491 55.17158 37881 ft 432 kts 279°
2026-05-06 01:33 39.75120 55.09634 37896 ft 431 kts 278°
2026-05-06 01:33 39.76736 55.02144 37888 ft 430 kts 278°
2026-05-06 01:34 39.78345 54.94654 37892 ft 430 kts 278°
2026-05-06 01:34 39.79948 54.87165 37892 ft 430 kts 278°
2026-05-06 01:35 39.81548 54.79665 37897 ft 430 kts 278°
2026-05-06 01:35 39.83147 54.72172 37902 ft 429 kts 278°
2026-05-06 01:36 39.84737 54.64729 37903 ft 429 kts 278°
2026-05-06 01:36 39.86330 54.57254 37914 ft 428 kts 278°
2026-05-06 01:37 39.87911 54.49792 37915 ft 428 kts 278°
2026-05-06 01:37 39.89488 54.42316 37913 ft 428 kts 277°
2026-05-06 01:38 39.91056 54.34822 37910 ft 429 kts 277°
2026-05-06 01:38 39.92618 54.27310 37907 ft 429 kts 277°
2026-05-06 01:39 39.94174 54.19804 37908 ft 429 kts 277°
2026-05-06 01:39 39.95729 54.12275 37908 ft 429 kts 277°
2026-05-06 01:40 39.97271 54.04798 37911 ft 431 kts 277°
2026-05-06 01:40 39.98824 53.97221 37914 ft 433 kts 277°
2026-05-06 01:41 40.00377 53.89634 37909 ft 433 kts 277°
2026-05-06 01:41 40.01927 53.82039 37914 ft 433 kts 277°
2026-05-06 01:42 40.03388 53.74850 37946 ft 433 kts 276°
2026-05-06 01:42 40.04927 53.67247 37919 ft 433 kts 276°
2026-05-06 01:43 40.06462 53.59634 37924 ft 434 kts 276°
2026-05-06 01:43 40.07993 53.52018 37924 ft 434 kts 276°
2026-05-06 01:44 40.09518 53.44399 37928 ft 434 kts 276°
2026-05-06 01:44 40.11031 53.36808 37936 ft 435 kts 276°
2026-05-06 01:45 40.12554 53.29145 37935 ft 436 kts 276°
2026-05-06 01:45 40.14072 53.21475 37934 ft 436 kts 276°
2026-05-06 01:46 40.15587 53.13785 37939 ft 436 kts 276°
2026-05-06 01:46 40.17096 53.06099 37940 ft 436 kts 276°
2026-05-06 01:47 40.18604 52.98392 37941 ft 438 kts 276°
2026-05-06 01:47 40.20111 52.90659 37944 ft 439 kts 276°
2026-05-06 01:48 40.21615 52.82911 37946 ft 440 kts 276°
2026-05-06 01:48 40.23117 52.75154 37952 ft 440 kts 276°
2026-05-06 01:49 40.24604 52.67445 37951 ft 440 kts 276°
2026-05-06 01:49 40.26099 52.59654 37956 ft 442 kts 276°
2026-05-06 01:50 40.27595 52.51844 37947 ft 442 kts 276°
2026-05-06 01:50 40.29087 52.44042 37950 ft 442 kts 276°
2026-05-06 01:51 40.30574 52.36226 37967 ft 442 kts 276°
2026-05-06 01:51 40.32058 52.28388 37958 ft 444 kts 276°
2026-05-06 01:52 40.33547 52.20497 37954 ft 446 kts 276°
2026-05-06 01:52 40.35022 52.12658 37954 ft 446 kts 276°
2026-05-06 01:53 40.36501 52.04762 37960 ft 446 kts 276°
2026-05-06 01:53 40.37976 51.96854 37953 ft 446 kts 276°
2026-05-06 01:54 40.39443 51.88957 37962 ft 446 kts 276°
2026-05-06 01:54 40.40905 51.81049 37961 ft 446 kts 276°
2026-05-06 01:55 40.42363 51.73138 37962 ft 446 kts 276°
2026-05-06 01:55 40.43818 51.65200 37960 ft 447 kts 276°
2026-05-06 01:56 40.45270 51.57252 37967 ft 449 kts 276°
2026-05-06 01:56 40.46723 51.49313 37963 ft 450 kts 276°
2026-05-06 01:57 40.48310 51.41352 37967 ft 451 kts 277°
2026-05-06 01:57 40.49956 51.33381 37966 ft 451 kts 277°
2026-05-06 01:58 40.51587 51.25428 37971 ft 451 kts 277°
2026-05-06 01:58 40.53204 51.17442 37967 ft 453 kts 277°
2026-05-06 01:59 40.54817 51.09432 37967 ft 453 kts 277°
2026-05-06 01:59 40.56423 51.01416 37970 ft 453 kts 277°
2026-05-06 02:00 40.58012 50.93451 38008 ft 453 kts 277°
2026-05-06 02:00 40.59606 50.85428 37971 ft 454 kts 277°
2026-05-06 02:01 40.61201 50.77377 37966 ft 454 kts 277°
2026-05-06 02:01 40.62792 50.69322 37966 ft 454 kts 277°
2026-05-06 02:02 40.64376 50.61262 37960 ft 454 kts 277°
2026-05-06 02:02 40.65956 50.53201 37960 ft 456 kts 277°
2026-05-06 02:03 40.67267 50.46470 37961 ft 456 kts 277°
2026-05-06 02:03 40.69104 50.36998 37964 ft 457 kts 277°
2026-05-06 02:04 40.70404 50.30265 37964 ft 456 kts 277°
2026-05-06 02:04 40.71965 50.22146 37981 ft 457 kts 277°
2026-05-06 02:05 40.73524 50.13995 37970 ft 458 kts 277°
2026-05-06 02:05 40.75079 50.05843 37976 ft 459 kts 277°
2026-05-06 02:06 40.76629 49.97682 37971 ft 459 kts 277°
2026-05-06 02:06 40.78165 49.89566 38003 ft 459 kts 277°
2026-05-06 02:07 40.79701 49.81396 37985 ft 459 kts 277°
2026-05-06 02:07 40.81238 49.73206 37985 ft 460 kts 277°
2026-05-06 02:08 40.82766 49.65020 37988 ft 459 kts 277°
2026-05-06 02:08 40.84290 49.56817 37988 ft 459 kts 277°
2026-05-06 02:09 40.85808 49.48624 37996 ft 460 kts 276°
2026-05-06 02:09 40.87323 49.40394 37993 ft 461 kts 276°
2026-05-06 02:10 40.88824 49.32152 37998 ft 461 kts 276°
2026-05-06 02:10 40.90238 49.23911 38003 ft 460 kts 275°
2026-05-06 02:11 40.91626 49.15640 38020 ft 461 kts 276°
2026-05-06 02:11 40.93019 49.07340 38005 ft 463 kts 276°
2026-05-06 02:12 40.94413 48.99032 38002 ft 463 kts 276°
2026-05-06 02:12 40.95806 48.90711 38003 ft 463 kts 276°
2026-05-06 02:13 40.97184 48.82435 37998 ft 463 kts 276°
2026-05-06 02:13 40.98565 48.74106 38000 ft 464 kts 276°
2026-05-06 02:14 40.99941 48.65747 37984 ft 465 kts 276°
2026-05-06 02:14 41.01311 48.57384 37987 ft 465 kts 275°
2026-05-06 02:15 41.02675 48.49010 37971 ft 466 kts 275°
2026-05-06 02:15 41.04036 48.40619 37983 ft 466 kts 275°
2026-05-06 02:16 41.05399 48.32237 37959 ft 464 kts 276°
2026-05-06 02:16 41.06758 48.23856 37954 ft 466 kts 275°
2026-05-06 02:17 41.08095 48.15472 37956 ft 467 kts 275°
2026-05-06 02:17 41.09420 48.07120 37971 ft 466 kts 276°
2026-05-06 02:18 41.10763 47.98706 37961 ft 467 kts 275°
2026-05-06 02:18 41.12100 47.90250 37936 ft 467 kts 275°
2026-05-06 02:19 41.13426 47.81804 37946 ft 467 kts 275°
2026-05-06 02:19 41.14742 47.73367 37947 ft 467 kts 275°
2026-05-06 02:20 41.16705 47.60687 37958 ft 467 kts 275°
2026-05-06 02:21 41.18000 47.52273 37963 ft 468 kts 275°
2026-05-06 02:21 41.19297 47.43803 37971 ft 468 kts 275°
2026-05-06 02:22 41.20598 47.35325 37986 ft 468 kts 275°
2026-05-06 02:22 41.21886 47.26846 37989 ft 469 kts 274°
2026-05-06 02:23 41.23168 47.18349 38002 ft 469 kts 274°
2026-05-06 02:23 41.24443 47.09863 38006 ft 468 kts 274°
2026-05-06 02:24 41.25707 47.01422 38017 ft 468 kts 274°
2026-05-06 02:24 41.26969 46.92922 38018 ft 469 kts 274°
2026-05-06 02:25 41.28228 46.84413 38017 ft 470 kts 274°
2026-05-06 02:25 41.29484 46.75880 38018 ft 469 kts 274°
2026-05-06 02:26 41.30706 46.67336 38029 ft 471 kts 274°
2026-05-06 02:26 41.31901 46.58773 38025 ft 472 kts 274°
2026-05-06 02:27 41.33094 46.50162 38017 ft 474 kts 274°
2026-05-06 02:27 41.34294 46.41510 38016 ft 475 kts 274°
2026-05-06 02:28 41.35488 46.32862 38003 ft 475 kts 274°
2026-05-06 02:28 41.36663 46.24270 38005 ft 475 kts 274°
2026-05-06 02:29 41.37842 46.15597 38005 ft 476 kts 274°
2026-05-06 02:29 41.39019 46.06919 37999 ft 477 kts 274°
2026-05-06 02:30 41.40194 45.98197 37999 ft 478 kts 274°
2026-05-06 02:30 41.41363 45.89485 37997 ft 478 kts 274°
2026-05-06 02:31 41.42521 45.80763 37989 ft 478 kts 274°
2026-05-06 02:31 41.43675 45.72023 37986 ft 479 kts 274°
2026-05-06 02:32 41.44827 45.63269 37992 ft 479 kts 274°
2026-05-06 02:32 41.45974 45.54508 37979 ft 479 kts 274°
2026-05-06 02:33 41.47109 45.45751 37998 ft 480 kts 274°
2026-05-06 02:33 41.47484 45.42847 37972 ft 480 kts 274°
2026-05-06 02:34 41.49082 45.28191 37962 ft 479 kts 271°
2026-05-06 02:34 41.49758 45.19367 37963 ft 479 kts 270°
2026-05-06 02:35 41.50429 45.10540 37983 ft 479 kts 271°
2026-05-06 02:35 41.51125 45.01690 37975 ft 479 kts 271°
2026-05-06 02:36 41.51829 44.92833 37966 ft 480 kts 271°
2026-05-06 02:36 41.52531 44.83961 37967 ft 480 kts 271°
2026-05-06 02:37 41.53226 44.75094 37966 ft 480 kts 271°
2026-05-06 02:37 41.53912 44.66231 37970 ft 480 kts 271°
2026-05-06 02:38 41.54591 44.57359 37972 ft 480 kts 271°
2026-05-06 02:38 41.55259 44.48490 37973 ft 480 kts 271°
2026-05-06 02:39 41.55923 44.39615 37979 ft 480 kts 271°
2026-05-06 02:39 41.56581 44.30747 37976 ft 480 kts 271°
2026-05-06 02:40 41.56865 44.21940 37983 ft 474 kts 262°
2026-05-06 02:40 41.56105 44.13199 37978 ft 474 kts 258°
2026-05-06 02:41 41.55135 44.04485 37982 ft 474 kts 257°
2026-05-06 02:41 41.54129 43.95772 37982 ft 474 kts 258°
2026-05-06 02:42 41.53136 43.87066 37989 ft 475 kts 258°
2026-05-06 02:42 41.52147 43.78335 37984 ft 475 kts 258°
2026-05-06 02:43 41.51158 43.69616 37985 ft 475 kts 258°
2026-05-06 02:43 41.50160 43.60879 37982 ft 476 kts 258°
2026-05-06 02:44 41.49151 43.52121 37985 ft 478 kts 258°
2026-05-06 02:44 41.48132 43.43354 37983 ft 478 kts 258°
2026-05-06 02:45 41.47107 43.34588 37984 ft 479 kts 258°
2026-05-06 02:45 41.46084 43.25865 37984 ft 478 kts 258°
2026-05-06 02:46 41.45047 43.17115 37985 ft 478 kts 258°
2026-05-06 02:46 41.44005 43.08361 37987 ft 478 kts 258°
2026-05-06 02:47 41.42952 42.99598 37983 ft 479 kts 258°
2026-05-06 02:47 41.41892 42.90816 37984 ft 480 kts 258°
2026-05-06 02:48 41.40824 42.82030 37985 ft 480 kts 258°
2026-05-06 02:48 41.39749 42.73242 37991 ft 480 kts 258°
2026-05-06 02:49 41.38673 42.64503 37999 ft 480 kts 258°
2026-05-06 02:49 41.37583 42.55718 38001 ft 480 kts 258°
2026-05-06 02:50 41.36488 42.46945 38013 ft 481 kts 258°
2026-05-06 02:50 41.35384 42.38165 38011 ft 482 kts 258°
2026-05-06 02:51 41.34271 42.29359 38029 ft 482 kts 258°
2026-05-06 02:51 41.33151 42.20547 38029 ft 483 kts 258°
2026-05-06 02:52 41.32034 42.11797 38034 ft 483 kts 258°
2026-05-06 02:52 41.31083 42.04425 38034 ft 482 kts 258°
2026-05-06 02:53 41.29941 41.95622 38044 ft 483 kts 258°
2026-05-06 02:53 41.28794 41.86885 38043 ft 482 kts 257°
2026-05-06 02:54 41.27633 41.78103 38049 ft 484 kts 258°
2026-05-06 02:54 41.26456 41.69274 38046 ft 485 kts 258°
2026-05-06 02:55 41.25272 41.60450 38052 ft 485 kts 257°
2026-05-06 02:55 41.24084 41.51631 38055 ft 485 kts 257°
2026-05-06 02:56 41.22891 41.42826 38043 ft 484 kts 257°
2026-05-06 02:56 41.21692 41.34028 38061 ft 484 kts 257°
2026-05-06 02:57 41.20484 41.25224 38062 ft 484 kts 257°
2026-05-06 02:57 41.19268 41.16408 38067 ft 486 kts 257°
2026-05-06 02:58 41.18053 41.07636 38071 ft 485 kts 257°
2026-05-06 02:58 41.16824 40.98823 38074 ft 485 kts 257°
2026-05-06 02:59 41.15588 40.90022 38074 ft 485 kts 257°
2026-05-06 02:59 41.14344 40.81212 38072 ft 485 kts 257°
2026-05-06 03:00 41.13091 40.72399 38072 ft 485 kts 257°
2026-05-06 03:00 41.11834 40.63608 38075 ft 485 kts 257°
2026-05-06 03:01 41.10574 40.54813 38074 ft 486 kts 257°
2026-05-06 03:01 41.09303 40.46009 38074 ft 486 kts 257°
2026-05-06 03:02 41.08023 40.37205 38070 ft 486 kts 257°
2026-05-06 03:02 41.06737 40.28406 38071 ft 486 kts 257°
2026-05-06 03:03 41.05444 40.19605 38074 ft 486 kts 257°
2026-05-06 03:03 41.04155 40.10861 38075 ft 486 kts 257°
2026-05-06 03:04 41.02848 40.02054 38078 ft 487 kts 257°
2026-05-06 03:04 41.01537 39.93256 38075 ft 487 kts 257°
2026-05-06 03:05 41.00227 39.84453 38072 ft 488 kts 259°
2026-05-06 03:05 40.99941 39.75481 38077 ft 491 kts 272°
2026-05-06 03:06 41.00658 39.66497 38075 ft 491 kts 275°
2026-05-06 03:06 41.01545 39.57529 38075 ft 492 kts 276°
2026-05-06 03:07 41.02436 39.48528 38082 ft 492 kts 275°
2026-05-06 03:07 41.03298 39.39543 38069 ft 492 kts 275°
2026-05-06 03:08 41.04132 39.30608 38082 ft 492 kts 275°
2026-05-06 03:08 41.04958 39.21614 38081 ft 492 kts 275°
2026-05-06 03:09 41.05780 39.12617 38083 ft 492 kts 275°
2026-05-06 03:09 41.06610 39.03627 38085 ft 492 kts 275°
2026-05-06 03:10 41.07442 38.94625 38078 ft 492 kts 275°
2026-05-06 03:10 41.08260 38.85613 38082 ft 492 kts 275°
2026-05-06 03:11 41.09065 38.76678 38067 ft 492 kts 275°
2026-05-06 03:11 41.09873 38.67670 38083 ft 492 kts 275°
2026-05-06 03:12 41.10652 38.58663 38084 ft 492 kts 275°
2026-05-06 03:12 41.11412 38.49649 38091 ft 492 kts 275°
2026-05-06 03:13 41.12161 38.40612 38073 ft 493 kts 275°
2026-05-06 03:13 41.12907 38.31571 38068 ft 493 kts 275°
2026-05-06 03:14 41.13645 38.22528 38075 ft 493 kts 275°
2026-05-06 03:14 41.14385 38.13477 38067 ft 493 kts 275°
2026-05-06 03:15 41.15119 38.04425 38085 ft 493 kts 275°
2026-05-06 03:15 41.15845 37.95383 38087 ft 493 kts 275°
2026-05-06 03:16 41.16572 37.86331 38077 ft 493 kts 275°
2026-05-06 03:16 41.17337 37.77284 38080 ft 493 kts 275°
2026-05-06 03:17 41.18101 37.68291 38080 ft 493 kts 275°
2026-05-06 03:17 41.18823 37.59218 38093 ft 494 kts 274°
2026-05-06 03:18 41.19373 37.50138 38078 ft 494 kts 274°
2026-05-06 03:18 41.20014 37.41058 38097 ft 493 kts 275°
2026-05-06 03:19 41.20686 37.32005 38081 ft 492 kts 275°
2026-05-06 03:19 41.21361 37.22954 38080 ft 492 kts 275°
2026-05-06 03:20 41.22409 37.09421 38082 ft 493 kts 275°
2026-05-06 03:20 41.23116 37.00368 38078 ft 493 kts 275°
2026-05-06 03:21 41.23811 36.91255 38087 ft 493 kts 275°
2026-05-06 03:21 41.24491 36.82250 38077 ft 493 kts 275°
2026-05-06 03:22 41.25166 36.73183 38081 ft 492 kts 275°
2026-05-06 03:22 41.25827 36.64151 38080 ft 491 kts 275°
2026-05-06 03:23 41.26488 36.55109 38081 ft 491 kts 275°
2026-05-06 03:23 41.27135 36.46088 38084 ft 491 kts 275°
2026-05-06 03:24 41.27770 36.37045 38081 ft 491 kts 275°
2026-05-06 03:24 41.28400 36.28014 38077 ft 491 kts 275°
2026-05-06 03:25 41.29022 36.18965 38089 ft 491 kts 275°
2026-05-06 03:25 41.29642 36.09916 38076 ft 491 kts 275°
2026-05-06 03:26 41.30248 36.00861 38068 ft 491 kts 275°
2026-05-06 03:26 41.30847 35.91811 38069 ft 491 kts 275°
2026-05-06 03:27 41.31437 35.82829 38062 ft 491 kts 275°
2026-05-06 03:27 41.32030 35.73763 38067 ft 492 kts 275°
2026-05-06 03:28 41.32620 35.64676 38062 ft 492 kts 275°
2026-05-06 03:28 41.33191 35.55603 38061 ft 492 kts 275°
2026-05-06 03:29 41.33754 35.46527 38062 ft 492 kts 275°
2026-05-06 03:29 41.34311 35.37457 38081 ft 492 kts 275°
2026-05-06 03:30 41.34863 35.28388 38060 ft 491 kts 275°
2026-05-06 03:30 41.35411 35.19328 38055 ft 490 kts 275°
2026-05-06 03:31 41.35948 35.10273 38065 ft 490 kts 275°
2026-05-06 03:31 41.36471 35.01284 38074 ft 490 kts 275°
2026-05-06 03:32 41.36995 34.92238 38075 ft 490 kts 275°
2026-05-06 03:32 41.37517 34.83188 38074 ft 490 kts 275°
2026-05-06 03:33 41.38030 34.74121 38078 ft 490 kts 275°
2026-05-06 03:33 41.38524 34.65074 38070 ft 490 kts 275°
2026-05-06 03:34 41.39015 34.56051 38071 ft 488 kts 275°
2026-05-06 03:34 41.39497 34.47025 38072 ft 488 kts 275°
2026-05-06 03:35 41.39985 34.38005 38075 ft 488 kts 276°
2026-05-06 03:35 41.41394 34.29271 38079 ft 485 kts 288°
2026-05-06 03:36 41.43497 34.20756 38081 ft 484 kts 290°
2026-05-06 03:36 41.45711 34.12285 38081 ft 484 kts 290°
2026-05-06 03:37 41.47922 34.03806 38080 ft 484 kts 290°
2026-05-06 03:37 41.50111 33.95331 38082 ft 482 kts 290°
2026-05-06 03:38 41.52284 33.86857 38086 ft 482 kts 290°
2026-05-06 03:38 41.54078 33.79828 38093 ft 482 kts 290°
2026-05-06 03:39 41.56234 33.71355 38089 ft 482 kts 290°
2026-05-06 03:39 41.58382 33.62891 38091 ft 481 kts 290°
2026-05-06 03:40 41.60518 33.54426 38094 ft 481 kts 290°
2026-05-06 03:40 41.62651 33.45960 38091 ft 481 kts 290°
2026-05-06 03:41 41.64776 33.37485 38090 ft 480 kts 290°
2026-05-06 03:41 41.66888 33.29038 38090 ft 479 kts 290°
2026-05-06 03:42 41.68996 33.20569 38087 ft 479 kts 290°
2026-05-06 03:42 41.71099 33.12106 38077 ft 479 kts 290°
2026-05-06 03:43 41.72897 33.03570 38088 ft 482 kts 281°
2026-05-06 03:43 41.73524 32.94635 38086 ft 480 kts 284°
2026-05-06 03:44 41.74807 32.90523 36848 ft 486 kts 310°
2026-05-06 03:44 41.77335 32.87530 31834 ft 473 kts 326°
2026-05-06 03:44 41.79799 32.85656 20819 ft 334 kts 340°
2026-05-06 03:44 41.81600 32.84944 11422 ft 2 kts 346°
2026-05-06 03:45 41.81820 32.84867 8381 ft 125 kts 342°
2026-05-06 03:45 41.82620 32.84545 5543 ft 34 kts 329°
2026-05-06 03:45 41.83785 32.83653 3721 ft 472 kts 327°
2026-05-06 03:45 41.85634 32.82048 8858 ft 469 kts 326°
2026-05-06 03:46 41.87853 32.80041 13018 ft 342 kts 326°
2026-05-06 03:46 41.88636 32.79272 18670 ft 14 kts 150°
2026-05-06 03:46 41.88475 32.79214 18506 ft 13 kts 176°
2026-05-06 03:46 41.88019 32.79295 13270 ft 480 kts 174°
2026-05-06 03:47 41.85374 32.80061 16811 ft 236 kts 151°
2026-05-06 03:47 41.84825 32.80427 21198 ft 28 kts 315°
2026-05-06 03:47 41.84618 32.80436 18917 ft 30 kts 73°
2026-05-06 03:47 41.83847 32.80377 14707 ft 3 kts 191°
2026-05-06 03:48 41.83613 32.80331 11381 ft 131 kts 186°
2026-05-06 03:48 41.81755 32.80071 10448 ft 430 kts 186°
2026-05-06 03:48 41.79929 32.79837 15909 ft 67 kts 183°
2026-05-06 03:48 41.79813 32.79771 17814 ft 11 kts 339°
2026-05-06 03:49 41.79659 32.79841 13352 ft 110 kts 166°
2026-05-06 03:49 41.79200 32.79924 10510 ft 33 kts 168°
2026-05-06 03:49 41.78363 32.80239 7492 ft 2 kts 162°
2026-05-06 03:49 41.78121 32.80315 4574 ft 135 kts 171°
2026-05-06 03:50 41.77081 32.80541 4047 ft 363 kts 176°
2026-05-06 03:50 41.76198 32.80550 4755 ft 466 kts 181°
2026-05-06 03:50 41.74515 32.80537 9151 ft 2 kts 181°
2026-05-06 03:50 41.74296 32.80512 6237 ft 127 kts 190°
2026-05-06 03:51 41.72754 32.80241 4995 ft 203 kts 188°
2026-05-06 03:51 41.71901 32.80148 6675 ft 79 kts 187°
2026-05-06 03:51 41.71401 32.80015 3902 ft 184 kts 56°
2026-05-06 03:51 41.71705 32.80733 4026 ft 320 kts 62°
2026-05-06 03:52 41.73356 32.83142 5721 ft 35 kts 33°
2026-05-06 03:52 41.73963 32.83483 4620 ft 1 kts
2026-05-06 03:52 41.75177 32.83075 5724 ft 475 kts 341°
2026-05-06 03:53 41.77021 32.82210 10834 ft 1 kts 338°
2026-05-06 03:53 41.77228 32.82098 7841 ft 125 kts 332°
2026-05-06 03:53 41.77948 32.81591 5998 ft 10 kts 324°
2026-05-06 03:53 41.78877 32.80462 6147 ft 470 kts 314°
2026-05-06 03:54 41.79402 32.79756 6245 ft 33 kts 307°
2026-05-06 03:54 41.80272 32.78715 2930 ft 265 kts 314°
2026-05-06 03:54 41.81131 32.77475 4958 ft 95 kts 305°
2026-05-06 03:54 41.81458 32.76926 4102 ft 78 kts 301°
2026-05-06 03:55 41.82082 32.75504 1898 ft 223 kts 296°
2026-05-06 03:55 41.82613 32.74228 3298 ft 100 kts 295°
2026-05-06 03:55 41.82983 32.73379 2328 ft 144 kts 295°
2026-05-06 03:55 41.83521 32.71968 1718 ft 163 kts 292°
2026-05-06 03:56 41.83973 32.70834 1911 ft 124 kts 294°
2026-05-06 03:56 41.84425 32.69722 1190 ft 149 kts 295°
2026-05-06 03:56 41.84899 32.68544 978 ft 135 kts 295°
2026-05-06 03:56 41.85351 32.67431 493 ft 142 kts 296°
2026-05-06 03:57 41.85812 32.66241 140 ft 139 kts 294°
2026-05-06 03:57 41.86227 32.65131 29 ft 125 kts 295°
2026-05-06 03:57 41.86374 32.64749 15 ft 5 kts 295°
2026-05-06 03:57 41.86389 32.64703 15 ft 5 kts 294°
2026-05-06 03:58 41.86405 32.64657 12 ft 5 kts 293°
2026-05-06 03:58 41.86419 32.64610 13 ft 5 kts 291°
2026-05-06 03:58 41.86433 32.64562 13 ft 5 kts 290°
2026-05-06 03:58 41.86445 32.64514 13 ft 5 kts 289°
2026-05-06 03:59 41.86458 32.64466 13 ft 5 kts 288°
2026-05-06 03:59 41.86469 32.64418 13 ft 5 kts 287°
2026-05-06 03:59 41.86479 32.64370 13 ft 5 kts 285°
2026-05-06 03:59 41.86489 32.64321 13 ft 5 kts 284°
2026-05-06 04:00 41.86498 32.64272 27 ft 5 kts 283°
2026-05-06 04:00 41.86506 32.64222 13 ft 5 kts 282°
2026-05-06 04:00 41.86514 32.64172 13 ft 5 kts 281°
2026-05-06 04:00 41.86521 32.64122 13 ft 5 kts 280°
2026-05-06 04:01 41.86527 32.64072 13 ft 5 kts 279°
2026-05-06 04:01 41.86532 32.64022 13 ft 5 kts 277°
2026-05-06 04:01 41.86536 32.63972 13 ft 5 kts 276°
2026-05-06 04:01 41.86540 32.63921 13 ft 5 kts 275°
2026-05-06 04:02 41.86543 32.63870 13 ft 5 kts 274°
2026-05-06 04:02 41.86545 32.63820 13 ft 5 kts 272°
2026-05-06 04:02 41.86546 32.63769 13 ft 5 kts 271°
2026-05-06 04:02 41.86546 32.63718 13 ft 5 kts 270°
2026-05-06 04:03 41.86545 32.63668 13 ft 5 kts 268°
2026-05-06 04:03 41.86543 32.63617 13 ft 5 kts 267°
2026-05-06 04:03 41.86541 32.63567 13 ft 5 kts 266°
2026-05-06 04:03 41.86538 32.63516 13 ft 5 kts 265°
2026-05-06 04:04 41.86534 32.63466 13 ft 5 kts 264°
2026-05-06 04:04 41.86530 32.63416 13 ft 5 kts 263°
2026-05-06 04:04 41.86524 32.63365 13 ft 5 kts 261°
2026-05-06 04:04 41.86518 32.63315 13 ft 5 kts 260°
2026-05-06 04:05 41.86511 32.63265 12 ft 5 kts 259°
2026-05-06 04:05 41.86503 32.63216 13 ft 5 kts 257°
2026-05-06 04:05 41.86495 32.63166 13 ft 5 kts 256°
2026-05-06 04:05 41.86485 32.63117 13 ft 5 kts 255°
2026-05-06 04:06 41.86475 32.63068 16 ft 5 kts 253°
2026-05-06 04:06 41.86463 32.63020 16 ft 5 kts 252°
2026-05-06 04:06 41.86451 32.62972 13 ft 5 kts 251°
2026-05-06 04:06 41.86438 32.62924 13 ft 5 kts 250°
2026-05-06 04:07 41.86425 32.62877 12 ft 5 kts 248°
2026-05-06 04:07 41.86411 32.62831 13 ft 5 kts 247°
2026-05-06 04:07 41.86395 32.62784 13 ft 5 kts 246°
2026-05-06 04:07 41.86380 32.62738 13 ft 5 kts 245°
2026-05-06 04:08 41.86363 32.62692 14 ft 5 kts 244°
2026-05-06 04:08 41.86346 32.62647 15 ft 5 kts 243°
2026-05-06 04:08 41.86329 32.62602 13 ft 5 kts 242°
2026-05-06 04:08 41.86311 32.62557 13 ft 5 kts 242°
2026-05-06 04:09 41.86293 32.62513 10 ft 5 kts 240°
2026-05-06 04:09 41.86274 32.62469 13 ft 5 kts 239°
2026-05-06 04:09 41.86254 32.62426 13 ft 5 kts 238°
2026-05-06 04:09 41.86234 32.62383 13 ft 5 kts 237°
2026-05-06 04:10 41.86213 32.62341 13 ft 5 kts 236°
2026-05-06 04:10 41.86191 32.62300 13 ft 5 kts 234°
2026-05-06 04:10 41.86169 32.62259 13 ft 5 kts 233°
2026-05-06 04:10 41.86147 32.62218 14 ft 5 kts 233°
2026-05-06 04:11 41.86123 32.62178 13 ft 5 kts 231°
2026-05-06 04:11 41.86099 32.62139 13 ft 5 kts 230°
2026-05-06 04:11 41.86075 32.62100 13 ft 5 kts 229°
2026-05-06 04:11 41.86050 32.62062 13 ft 5 kts 228°
2026-05-06 04:12 41.86024 32.62025 13 ft 5 kts 227°
2026-05-06 04:12 41.85998 32.61988 13 ft 5 kts 226°
2026-05-06 04:12 41.85972 32.61952 13 ft 5 kts 225°
2026-05-06 04:12 41.85945 32.61916 13 ft 5 kts 224°
2026-05-06 04:13 41.85917 32.61882 11 ft 5 kts 223°
2026-05-06 04:13 41.85889 32.61847 13 ft 5 kts 222°
2026-05-06 04:13 41.85861 32.61814 13 ft 5 kts 221°
2026-05-06 04:13 41.85832 32.61781 14 ft 5 kts 220°
2026-05-06 04:14 41.85803 32.61750 15 ft 5 kts 219°
2026-05-06 04:14 41.85773 32.61718 13 ft 5 kts 218°
2026-05-06 04:14 41.85743 32.61687 13 ft 5 kts 217°
2026-05-06 04:14 41.85713 32.61657 13 ft 5 kts 216°
2026-05-06 04:15 41.85682 32.61628 10 ft 5 kts 215°
2026-05-06 04:15 41.85651 32.61599 13 ft 5 kts 214°
2026-05-06 04:15 41.85619 32.61571 13 ft 5 kts 213°
2026-05-06 04:15 41.85587 32.61544 14 ft 5 kts 212°
2026-05-06 04:16 41.85555 32.61518 14 ft 5 kts 211°
2026-05-06 04:16 41.85522 32.61492 13 ft 5 kts 210°
2026-05-06 04:16 41.85489 32.61468 13 ft 5 kts 209°
2026-05-06 04:16 41.85456 32.61443 13 ft 5 kts 208°
2026-05-06 04:17 41.85422 32.61420 10 ft 5 kts 207°
2026-05-06 04:17 41.85388 32.61398 13 ft 5 kts 206°
2026-05-06 04:17 41.85354 32.61376 13 ft 5 kts 205°
2026-05-06 04:17 41.85319 32.61355 13 ft 5 kts 204°
2026-05-06 04:18 41.85285 32.61336 13 ft 5 kts 203°
2026-05-06 04:18 41.85250 32.61316 13 ft 5 kts 202°
2026-05-06 04:18 41.85215 32.61298 13 ft 5 kts 201°
2026-05-06 04:18 41.85179 32.61280 13 ft 5 kts 200°
2026-05-06 04:19 41.85144 32.61264 13 ft 5 kts 199°
2026-05-06 04:19 41.85108 32.61248 13 ft 5 kts 198°
2026-05-06 04:19 41.85072 32.61233 13 ft 5 kts 197°
2026-05-06 04:19 41.85035 32.61219 13 ft 5 kts 195°
2026-05-06 04:20 41.84999 32.61206 13 ft 5 kts 194°
2026-05-06 04:20 41.84962 32.61194 13 ft 5 kts 193°
2026-05-06 04:20 41.84925 32.61183 13 ft 5 kts 192°
2026-05-06 04:20 41.84888 32.61172 13 ft 5 kts 191°
2026-05-06 04:21 41.84851 32.61163 13 ft 5 kts 190°
2026-05-06 04:21 41.84813 32.61155 13 ft 5 kts 189°
2026-05-06 04:21 41.84776 32.61148 13 ft 5 kts 188°
2026-05-06 04:21 41.84739 32.61141 13 ft 5 kts 187°
2026-05-06 04:22 41.84701 32.61135 13 ft 5 kts 186°
2026-05-06 04:22 41.84663 32.61131 13 ft 5 kts 185°
2026-05-06 04:22 41.84626 32.61127 13 ft 5 kts 184°
2026-05-06 04:23 41.84550 32.61122 10 ft 5 kts 182°
2026-05-06 04:23 41.84512 32.61121 13 ft 5 kts 181°
2026-05-06 04:23 41.84474 32.61120 13 ft 5 kts 180°
2026-05-06 04:23 41.84437 32.61121 13 ft 5 kts 179°
2026-05-06 04:24 41.84399 32.61123 16 ft 5 kts 178°
2026-05-06 04:24 41.84361 32.61125 13 ft 5 kts 177°
2026-05-06 04:24 41.84323 32.61128 13 ft 5 kts 176°
2026-05-06 04:24 41.84285 32.61132 13 ft 5 kts 175°
2026-05-06 04:25 41.84248 32.61137 11 ft 5 kts 174°
2026-05-06 04:25 41.84210 32.61142 13 ft 5 kts 173°
2026-05-06 04:25 41.84173 32.61148 13 ft 5 kts 172°
2026-05-06 04:25 41.84135 32.61155 13 ft 5 kts 171°
2026-05-06 04:26 41.84098 32.61164 13 ft 5 kts 171°
2026-05-06 04:26 41.84060 32.61172 13 ft 5 kts 169°
2026-05-06 04:26 41.84023 32.61182 13 ft 5 kts 168°
2026-05-06 04:26 41.83986 32.61193 13 ft 5 kts 167°
2026-05-06 04:27 41.83950 32.61205 13 ft 5 kts 166°
2026-05-06 04:27 41.83913 32.61218 13 ft 5 kts 165°
2026-05-06 04:27 41.83877 32.61232 13 ft 5 kts 164°
2026-05-06 04:27 41.83841 32.61246 13 ft 5 kts 163°
2026-05-06 04:28 41.83805 32.61262 13 ft 5 kts 162°
2026-05-06 04:28 41.83769 32.61278 13 ft 5 kts 161°
2026-05-06 04:28 41.83733 32.61295 13 ft 5 kts 159°
2026-05-06 04:28 41.83698 32.61313 13 ft 5 kts 158°
2026-05-06 04:29 41.83663 32.61333 13 ft 5 kts 157°
2026-05-06 04:29 41.83628 32.61353 13 ft 5 kts 156°
2026-05-06 04:29 41.83594 32.61374 13 ft 5 kts 155°
2026-05-06 04:29 41.83560 32.61396 13 ft 5 kts 154°
2026-05-06 04:30 41.83526 32.61419 13 ft 5 kts 152°
2026-05-06 04:30 41.83492 32.61443 13 ft 5 kts 152°
2026-05-06 04:30 41.83459 32.61468 13 ft 5 kts 150°
2026-05-06 04:30 41.83426 32.61493 13 ft 5 kts 149°
2026-05-06 04:31 41.83395 32.61519 13 ft 5 kts 148°
2026-05-06 04:31 41.83362 32.61547 13 ft 5 kts 147°
2026-05-06 04:31 41.83331 32.61575 13 ft 5 kts 146°
2026-05-06 04:31 41.83300 32.61604 13 ft 5 kts 144°
2026-05-06 04:32 41.83270 32.61634 13 ft 5 kts 143°
2026-05-06 04:32 41.83239 32.61665 13 ft 5 kts 142°
2026-05-06 04:32 41.83210 32.61696 13 ft 5 kts 141°
2026-05-06 04:32 41.83180 32.61728 13 ft 5 kts 140°
2026-05-06 04:33 41.83151 32.61761 13 ft 5 kts 140°
2026-05-06 04:33 41.83123 32.61794 13 ft 5 kts 139°
2026-05-06 04:33 41.83095 32.61828 14 ft 5 kts 137°
2026-05-06 04:33 41.83067 32.61863 13 ft 5 kts 136°
2026-05-06 04:34 41.83041 32.61897 15 ft 5 kts 135°
2026-05-06 04:34 41.83038 32.61902 15 ft 0 kts 133°
2026-05-06 04:38 41.83038 32.61903 15 ft 0 kts 132°
2026-05-06 04:43 41.83038 32.61904 15 ft 0 kts 132°
2026-05-06 04:43 41.83039 32.61904 15 ft 0 kts 131°
2026-05-06 04:48 41.83039 32.61905 15 ft 0 kts 131°
2026-05-06 04:49 41.83028 32.61921 13 ft 5 kts 130°
2026-05-06 04:49 41.83004 32.61960 13 ft 5 kts 129°
2026-05-06 04:50 41.82980 32.61999 13 ft 5 kts 128°
2026-05-06 04:50 41.82957 32.62039 13 ft 5 kts 127°
2026-05-06 04:50 41.82934 32.62080 13 ft 5 kts 127°
2026-05-06 04:50 41.82912 32.62121 13 ft 5 kts 126°
2026-05-06 04:51 41.82890 32.62162 13 ft 5 kts 124°
2026-05-06 04:51 41.82876 32.62191 20 ft 0 kts 123°
2026-05-06 04:52 41.82879 32.62184 15 ft 2 kts 123°
2026-05-06 04:52 41.82880 32.62182 15 ft 2 kts 123°
2026-05-06 04:52 41.82877 32.62188 20 ft 0 kts 122°
2026-05-06 04:52 41.82881 32.62179 14 ft 2 kts 123°
2026-05-06 04:53 41.82879 32.62185 15 ft 1 kts 123°
2026-05-06 04:53 41.82879 32.62183 15 ft 1 kts 123°
2026-05-06 04:53 41.82880 32.62181 14 ft 1 kts 123°
2026-05-06 04:53 41.82879 32.62183 15 ft 1 kts 123°
2026-05-06 04:54 41.82880 32.62181 14 ft 1 kts 123°
2026-05-06 04:54 41.82881 32.62179 14 ft 1 kts 123°
2026-05-06 04:54 41.82879 32.62183 15 ft 0 kts 123°
2026-05-06 04:54 41.82882 32.62178 14 ft 1 kts 123°
2026-05-06 04:55 41.82880 32.62181 14 ft 1 kts 123°
2026-05-06 04:55 41.82881 32.62179 14 ft 1 kts 123°
2026-05-06 04:55 41.82880 32.62182 14 ft 0 kts 123°
2026-05-06 04:56 41.82881 32.62179 14 ft 0 kts 123°
2026-05-06 04:56 41.82880 32.62181 14 ft 1 kts 123°
2026-05-06 04:56 41.82881 32.62179 14 ft 0 kts 123°
2026-05-06 04:57 41.82880 32.62181 14 ft 0 kts 123°
2026-05-06 04:57 41.82881 32.62180 14 ft 1 kts 123°
2026-05-06 04:57 41.82881 32.62179 14 ft 0 kts 123°
2026-05-06 04:57 41.82880 32.62181 14 ft 0 kts 123°
2026-05-06 04:58 41.82881 32.62179 14 ft 0 kts 123°
2026-05-06 04:58 41.82881 32.62180 14 ft 0 kts 123°
2026-05-06 04:59 41.82880 32.62181 14 ft 0 kts 123°
2026-05-06 04:59 41.82881 32.62180 11 ft 0 kts 123°